Wetterdaten: Sonntag, 12.08.2012
Datum Zeit Temp. Innen Temp. Aussen UV X Diff Temp. Feuchte Inne Feuchte Auss Sonnenschein Luftdruck Regen ab 0,1 Wind Sonnenschein T Regendauer Windben
12.08.2012 00:00 24,1 C 16,1 C 0,0 UV-I 0,0 C 50 % 75 % 0 % 1018,1 hPa 0,0 l/m 0,0 km/h (0 Bft) 0 min 0 min 0,0 km/h (0 Bft)
12.08.2012 00:02 24,1 C 16,0 C 0,0 UV-I 0,0 C 50 % 75 % 0 % 1018,1 hPa 0,0 l/m 0,0 km/h (0 Bft) 0 min 0 min 0,0 km/h (0 Bft)
12.08.2012 00:04 24,1 C 16,0 C 0,0 UV-I 0,0 C 50 % 75 % 0 % 1018,1 hPa 0,0 l/m 0,0 km/h (0 Bft) 0 min 0 min 0,0 km/h (0 Bft)
12.08.2012 00:06 24,1 C 15,9 C 0,0 UV-I 0,0 C 50 % 76 % 0 % 1018,1 hPa 0,0 l/m 0,0 km/h (0 Bft) 0 min 0 min 0,0 km/h (0 Bft)
12.08.2012 00:08 24,1 C 15,7 C 0,0 UV-I 0,0 C 50 % 76 % 0 % 1018,1 hPa 0,0 l/m 0,0 km/h (0 Bft) 0 min 0 min 0,0 km/h (0 Bft)
12.08.2012 00:10 24,1 C 15,7 C 0,0 UV-I 0,0 C 50 % 76 % 0 % 1018,1 hPa 0,0 l/m 0,0 km/h (0 Bft) 0 min 0 min 0,0 km/h (0 Bft)
12.08.2012 00:12 24,0 C 15,6 C 0,0 UV-I 0,0 C 50 % 76 % 0 % 1018,3 hPa 0,0 l/m 0,0 km/h (0 Bft) 0 min 0 min 0,0 km/h (0 Bft)
12.08.2012 00:14 24,0 C 15,6 C 0,0 UV-I 0,0 C 50 % 76 % 0 % 1018,3 hPa 0,0 l/m 0,0 km/h (0 Bft) 0 min 0 min 0,0 km/h (0 Bft)
12.08.2012 00:16 24,0 C 15,5 C 0,0 UV-I 0,0 C 50 % 77 % 0 % 1018,3 hPa 0,0 l/m 0,0 km/h (0 Bft) 0 min 0 min 0,0 km/h (0 Bft)
12.08.2012 00:18 24,0 C 15,5 C 0,0 UV-I 0,0 C 50 % 77 % 0 % 1018,3 hPa 0,0 l/m 0,0 km/h (0 Bft) 0 min 0 min 0,0 km/h (0 Bft)
12.08.2012 00:20 24,0 C 15,4 C 0,0 UV-I 0,0 C 50 % 77 % 0 % 1018,3 hPa 0,0 l/m 0,0 km/h (0 Bft) 0 min 0 min 0,0 km/h (0 Bft)
12.08.2012 00:22 24,0 C 15,4 C 0,0 UV-I 0,0 C 50 % 77 % 0 % 1018,3 hPa 0,0 l/m 0,0 km/h (0 Bft) 0 min 0 min 0,0 km/h (0 Bft)
12.08.2012 00:24 24,0 C 15,3 C 0,0 UV-I 0,0 C 50 % 77 % 0 % 1018,3 hPa 0,0 l/m 0,0 km/h (0 Bft) 0 min 0 min 0,0 km/h (0 Bft)
12.08.2012 00:26 24,0 C 15,3 C 0,0 UV-I 0,0 C 50 % 77 % 0 % 1018,3 hPa 0,0 l/m 0,0 km/h (0 Bft) 0 min 0 min 0,0 km/h (0 Bft)
12.08.2012 00:28 24,0 C 15,3 C 0,0 UV-I 0,0 C 50 % 77 % 0 % 1018,3 hPa 0,0 l/m 0,0 km/h (0 Bft) 0 min 0 min 0,0 km/h (0 Bft)
12.08.2012 00:30 24,0 C 15,2 C 0,0 UV-I 0,0 C 50 % 78 % 0 % 1018,3 hPa 0,0 l/m 0,0 km/h (0 Bft) 0 min 0 min 0,0 km/h (0 Bft)
12.08.2012 00:32 24,0 C 15,1 C 0,0 UV-I 0,0 C 50 % 78 % 0 % 1018,3 hPa 0,0 l/m 0,0 km/h (0 Bft) 0 min 0 min 0,0 km/h (0 Bft)
12.08.2012 00:34 24,0 C 15,1 C 0,0 UV-I 0,0 C 50 % 78 % 0 % 1018,3 hPa 0,0 l/m 0,0 km/h (0 Bft) 0 min 0 min 0,0 km/h (0 Bft)
12.08.2012 00:36 24,0 C 15,1 C 0,0 UV-I 0,0 C 50 % 78 % 0 % 1018,3 hPa 0,0 l/m 0,0 km/h (0 Bft) 0 min 0 min 0,0 km/h (0 Bft)
12.08.2012 00:38 24,0 C 14,9 C 0,0 UV-I 0,0 C 50 % 78 % 0 % 1018,3 hPa 0,0 l/m 0,0 km/h (0 Bft) 0 min 0 min 0,0 km/h (0 Bft)
12.08.2012 00:40 24,0 C 14,9 C 0,0 UV-I 0,0 C 50 % 79 % 0 % 1018,3 hPa 0,0 l/m 0,0 km/h (0 Bft) 0 min 0 min 0,0 km/h (0 Bft)
12.08.2012 00:42 24,0 C 14,8 C 0,0 UV-I 0,0 C 50 % 79 % 0 % 1018,3 hPa 0,0 l/m 0,0 km/h (0 Bft) 0 min 0 min 0,0 km/h (0 Bft)
12.08.2012 00:44 23,9 C 14,9 C 0,0 UV-I 0,0 C 50 % 79 % 0 % 1018,3 hPa 0,0 l/m 0,0 km/h (0 Bft) 0 min 0 min 0,0 km/h (0 Bft)
12.08.2012 00:46 23,9 C 14,7 C 0,0 UV-I 0,0 C 50 % 79 % 0 % 1018,3 hPa 0,0 l/m 0,0 km/h (0 Bft) 0 min 0 min 0,0 km/h (0 Bft)
12.08.2012 00:48 23,9 C 14,7 C 0,0 UV-I 0,0 C 50 % 79 % 0 % 1018,3 hPa 0,0 l/m 0,0 km/h (0 Bft) 0 min 0 min 0,0 km/h (0 Bft)
12.08.2012 00:50 23,9 C 14,6 C 0,0 UV-I 0,0 C 50 % 79 % 0 % 1018,3 hPa 0,0 l/m 0,0 km/h (0 Bft) 0 min 0 min 0,0 km/h (0 Bft)
12.08.2012 00:52 23,9 C 14,7 C 0,0 UV-I 0,0 C 50 % 79 % 0 % 1018,0 hPa 0,0 l/m 0,0 km/h (0 Bft) 0 min 0 min 0,0 km/h (0 Bft)
12.08.2012 00:54 23,9 C 14,7 C 0,0 UV-I 0,0 C 50 % 79 % 0 % 1018,0 hPa 0,0 l/m 0,0 km/h (0 Bft) 0 min 0 min 0,0 km/h (0 Bft)
12.08.2012 00:56 23,9 C 14,5 C 0,0 UV-I 0,0 C 50 % 80 % 0 % 1018,0 hPa 0,0 l/m 0,0 km/h (0 Bft) 0 min 0 min 0,0 km/h (0 Bft)
12.08.2012 00:58 23,8 C 14,5 C 0,0 UV-I 0,0 C 51 % 80 % 0 % 1018,0 hPa 0,0 l/m 0,0 km/h (0 Bft) 0 min 0 min 0,0 km/h (0 Bft)
12.08.2012 01:00 23,8 C 14,4 C 0,0 UV-I 0,0 C 51 % 80 % 0 % 1018,0 hPa 0,0 l/m 0,0 km/h (0 Bft) 0 min 0 min 0,0 km/h (0 Bft)
12.08.2012 01:02 23,8 C 14,4 C 0,0 UV-I 0,0 C 51 % 80 % 0 % 1018,0 hPa 0,0 l/m 0,0 km/h (0 Bft) 0 min 0 min 0,0 km/h (0 Bft)
12.08.2012 01:04 23,8 C 14,5 C 0,0 UV-I 0,0 C 51 % 80 % 0 % 1018,0 hPa 0,0 l/m 0,0 km/h (0 Bft) 0 min 0 min 0,0 km/h (0 Bft)
12.08.2012 01:06 23,8 C 14,4 C 0,0 UV-I 0,0 C 51 % 81 % 0 % 1018,0 hPa 0,0 l/m 0,0 km/h (0 Bft) 0 min 0 min 0,0 km/h (0 Bft)
12.08.2012 01:08 23,8 C 14,3 C 0,0 UV-I 0,0 C 51 % 81 % 0 % 1018,0 hPa 0,0 l/m 0,0 km/h (0 Bft) 0 min 0 min 0,0 km/h (0 Bft)
12.08.2012 01:10 23,8 C 14,3 C 0,0 UV-I 0,0 C 51 % 81 % 0 % 1018,0 hPa 0,0 l/m 0,0 km/h (0 Bft) 0 min 0 min 0,0 km/h (0 Bft)
12.08.2012 01:12 23,8 C 14,3 C 0,0 UV-I 0,0 C 51 % 81 % 0 % 1017,9 hPa 0,0 l/m 0,0 km/h (0 Bft) 0 min 0 min 0,0 km/h (0 Bft)
12.08.2012 01:14 23,8 C 14,2 C 0,0 UV-I 0,0 C 51 % 81 % 0 % 1017,9 hPa 0,0 l/m 0,0 km/h (0 Bft) 0 min 0 min 0,0 km/h (0 Bft)
12.08.2012 01:16 23,8 C 14,1 C 0,0 UV-I 0,0 C 51 % 81 % 0 % 1017,9 hPa 0,0 l/m 0,0 km/h (0 Bft) 0 min 0 min 0,0 km/h (0 Bft)
12.08.2012 01:18 23,7 C 14,1 C 0,0 UV-I 0,0 C 51 % 81 % 0 % 1017,9 hPa 0,0 l/m 0,0 km/h (0 Bft) 0 min 0 min 0,0 km/h (0 Bft)
12.08.2012 01:20 23,7 C 14,0 C 0,0 UV-I 0,0 C 51 % 81 % 0 % 1017,9 hPa 0,0 l/m 0,0 km/h (0 Bft) 0 min 0 min 0,0 km/h (0 Bft)
12.08.2012 01:22 23,7 C 14,0 C 0,0 UV-I 0,0 C 51 % 81 % 0 % 1017,9 hPa 0,0 l/m 0,0 km/h (0 Bft) 0 min 0 min 0,0 km/h (0 Bft)
12.08.2012 01:24 23,7 C 14,0 C 0,0 UV-I 0,0 C 51 % 82 % 0 % 1017,9 hPa 0,0 l/m 0,0 km/h (0 Bft) 0 min 0 min 0,0 km/h (0 Bft)
12.08.2012 01:26 23,7 C 13,9 C 0,0 UV-I 0,0 C 51 % 82 % 0 % 1017,9 hPa 0,0 l/m 0,0 km/h (0 Bft) 0 min 0 min 0,0 km/h (0 Bft)
12.08.2012 01:28 23,6 C 13,9 C 0,0 UV-I 0,0 C 51 % 82 % 0 % 1017,9 hPa 0,0 l/m 0,0 km/h (0 Bft) 0 min 0 min 0,0 km/h (0 Bft)
12.08.2012 01:30 23,6 C 13,9 C 0,0 UV-I 0,0 C 51 % 82 % 0 % 1017,9 hPa 0,0 l/m 0,0 km/h (0 Bft) 0 min 0 min 0,0 km/h (0 Bft)
12.08.2012 01:32 23,6 C 13,8 C 0,0 UV-I 0,0 C 51 % 82 % 0 % 1017,7 hPa 0,0 l/m 0,0 km/h (0 Bft) 0 min 0 min 0,0 km/h (0 Bft)
12.08.2012 01:34 23,6 C 13,7 C 0,0 UV-I 0,0 C 51 % 82 % 0 % 1017,7 hPa 0,0 l/m 0,0 km/h (0 Bft) 0 min 0 min 0,0 km/h (0 Bft)
12.08.2012 01:36 23,6 C 13,7 C 0,0 UV-I 0,0 C 51 % 82 % 0 % 1017,7 hPa 0,0 l/m 0,0 km/h (0 Bft) 0 min 0 min 0,0 km/h (0 Bft)
12.08.2012 01:38 23,6 C 13,7 C 0,0 UV-I 0,0 C 51 % 82 % 0 % 1017,7 hPa 0,0 l/m 0,0 km/h (0 Bft) 0 min 0 min 0,0 km/h (0 Bft)
12.08.2012 01:40 23,6 C 13,6 C 0,0 UV-I 0,0 C 51 % 82 % 0 % 1017,7 hPa 0,0 l/m 0,0 km/h (0 Bft) 0 min 0 min 0,0 km/h (0 Bft)
12.08.2012 01:42 23,6 C 13,7 C 0,0 UV-I 0,0 C 51 % 82 % 0 % 1017,7 hPa 0,0 l/m 0,0 km/h (0 Bft) 0 min 0 min 0,0 km/h (0 Bft)
12.08.2012 01:44 23,6 C 13,6 C 0,0 UV-I 0,0 C 51 % 82 % 0 % 1017,7 hPa 0,0 l/m 0,0 km/h (0 Bft) 0 min 0 min 0,0 km/h (0 Bft)
12.08.2012 01:46 23,6 C 13,6 C 0,0 UV-I 0,0 C 51 % 82 % 0 % 1017,7 hPa 0,0 l/m 0,0 km/h (0 Bft) 0 min 0 min 0,0 km/h (0 Bft)
12.08.2012 01:48 23,6 C 13,5 C 0,0 UV-I 0,0 C 51 % 83 % 0 % 1017,7 hPa 0,0 l/m 0,0 km/h (0 Bft) 0 min 0 min 0,0 km/h (0 Bft)
12.08.2012 01:50 23,6 C 13,5 C 0,0 UV-I 0,0 C 51 % 83 % 0 % 1017,7 hPa 0,0 l/m 0,0 km/h (0 Bft) 0 min 0 min 0,0 km/h (0 Bft)
12.08.2012 01:52 23,5 C 13,5 C 0,0 UV-I 0,0 C 51 % 83 % 0 % 1017,2 hPa 0,0 l/m 0,0 km/h (0 Bft) 0 min 0 min 0,0 km/h (0 Bft)
12.08.2012 01:54 23,5 C 13,4 C 0,0 UV-I 0,0 C 51 % 83 % 0 % 1017,2 hPa 0,0 l/m 0,0 km/h (0 Bft) 0 min 0 min 0,0 km/h (0 Bft)
12.08.2012 01:56 23,5 C 13,5 C 0,0 UV-I 0,0 C 51 % 83 % 0 % 1017,2 hPa 0,0 l/m 0,0 km/h (0 Bft) 0 min 0 min 0,0 km/h (0 Bft)
12.08.2012 01:58 23,5 C 13,5 C 0,0 UV-I 0,0 C 51 % 83 % 0 % 1017,2 hPa 0,0 l/m 0,0 km/h (0 Bft) 0 min 0 min 0,0 km/h (0 Bft)
12.08.2012 02:00 23,5 C 13,5 C 0,0 UV-I 0,0 C 51 % 83 % 0 % 1017,2 hPa 0,0 l/m 0,0 km/h (0 Bft) 0 min 0 min 0,0 km/h (0 Bft)
12.08.2012 02:02 23,5 C 13,3 C 0,0 UV-I 0,0 C 51 % 84 % 0 % 1017,2 hPa 0,0 l/m 0,0 km/h (0 Bft) 0 min 0 min 0,0 km/h (0 Bft)
12.08.2012 02:04 23,4 C 13,3 C 0,0 UV-I 0,0 C 51 % 84 % 0 % 1017,2 hPa 0,0 l/m 0,0 km/h (0 Bft) 0 min 0 min 0,0 km/h (0 Bft)
12.08.2012 02:06 23,4 C 13,3 C 0,0 UV-I 0,0 C 51 % 84 % 0 % 1017,2 hPa 0,0 l/m 0,0 km/h (0 Bft) 0 min 0 min 0,0 km/h (0 Bft)
12.08.2012 02:08 23,4 C 13,3 C 0,0 UV-I 0,0 C 51 % 84 % 0 % 1017,2 hPa 0,0 l/m 0,0 km/h (0 Bft) 0 min 0 min 0,0 km/h (0 Bft)
12.08.2012 02:10 23,4 C 13,3 C 0,0 UV-I 0,0 C 51 % 84 % 0 % 1017,2 hPa 0,0 l/m 0,0 km/h (0 Bft) 0 min 0 min 0,0 km/h (0 Bft)
12.08.2012 02:12 23,4 C 13,3 C 0,0 UV-I 0,0 C 52 % 84 % 0 % 1017,4 hPa 0,0 l/m 0,0 km/h (0 Bft) 0 min 0 min 0,0 km/h (0 Bft)
12.08.2012 02:14 23,4 C 13,2 C 0,0 UV-I 0,0 C 52 % 84 % 0 % 1017,4 hPa 0,0 l/m 0,0 km/h (0 Bft) 0 min 0 min 0,0 km/h (0 Bft)
12.08.2012 02:16 23,4 C 13,3 C 0,0 UV-I 0,0 C 51 % 84 % 0 % 1017,4 hPa 0,0 l/m 0,0 km/h (0 Bft) 0 min 0 min 0,0 km/h (0 Bft)
12.08.2012 02:18 23,4 C 13,2 C 0,0 UV-I 0,0 C 52 % 84 % 0 % 1017,4 hPa 0,0 l/m 0,0 km/h (0 Bft) 0 min 0 min 0,0 km/h (0 Bft)
12.08.2012 02:20 23,4 C 13,1 C 0,0 UV-I 0,0 C 52 % 85 % 0 % 1017,4 hPa 0,0 l/m 0,0 km/h (0 Bft) 0 min 0 min 0,0 km/h (0 Bft)
12.08.2012 02:22 23,4 C 13,1 C 0,0 UV-I 0,0 C 52 % 85 % 0 % 1017,4 hPa 0,0 l/m 0,0 km/h (0 Bft) 0 min 0 min 0,0 km/h (0 Bft)
12.08.2012 02:24 23,2 C 13,1 C 0,0 UV-I 0,0 C 52 % 85 % 0 % 1017,4 hPa 0,0 l/m 0,0 km/h (0 Bft) 0 min 0 min 0,0 km/h (0 Bft)
12.08.2012 02:26 23,2 C 13,1 C 0,0 UV-I 0,0 C 52 % 85 % 0 % 1017,4 hPa 0,0 l/m 0,0 km/h (0 Bft) 0 min 0 min 0,0 km/h (0 Bft)
12.08.2012 02:28 23,2 C 13,0 C 0,0 UV-I 0,0 C 52 % 85 % 0 % 1017,4 hPa 0,0 l/m 0,0 km/h (0 Bft) 0 min 0 min 0,0 km/h (0 Bft)
12.08.2012 02:30 23,2 C 13,0 C 0,0 UV-I 0,0 C 52 % 85 % 0 % 1017,4 hPa 0,0 l/m 0,0 km/h (0 Bft) 0 min 0 min 0,0 km/h (0 Bft)
12.08.2012 02:32 23,2 C 13,1 C 0,0 UV-I 0,0 C 52 % 85 % 0 % 1017,2 hPa 0,0 l/m 0,0 km/h (0 Bft) 0 min 0 min 0,0 km/h (0 Bft)
12.08.2012 02:34 23,3 C 13,0 C 0,0 UV-I 0,0 C 52 % 85 % 0 % 1017,2 hPa 0,0 l/m 0,0 km/h (0 Bft) 0 min 0 min 0,0 km/h (0 Bft)
12.08.2012 02:36 23,3 C 12,9 C 0,0 UV-I 0,0 C 52 % 85 % 0 % 1017,2 hPa 0,0 l/m 0,0 km/h (0 Bft) 0 min 0 min 0,0 km/h (0 Bft)
12.08.2012 02:38 23,3 C 12,9 C 0,0 UV-I 0,0 C 52 % 86 % 0 % 1017,2 hPa 0,0 l/m 0,0 km/h (0 Bft) 0 min 0 min 0,0 km/h (0 Bft)
12.08.2012 02:40 23,2 C 12,9 C 0,0 UV-I 0,0 C 52 % 86 % 0 % 1017,2 hPa 0,0 l/m 0,0 km/h (0 Bft) 0 min 0 min 0,0 km/h (0 Bft)
12.08.2012 02:42 23,2 C 12,8 C 0,0 UV-I 0,0 C 52 % 85 % 0 % 1017,2 hPa 0,0 l/m 0,0 km/h (0 Bft) 0 min 0 min 0,0 km/h (0 Bft)
12.08.2012 02:44 23,2 C 12,8 C 0,0 UV-I 0,0 C 52 % 85 % 0 % 1017,2 hPa 0,0 l/m 0,0 km/h (0 Bft) 0 min 0 min 0,0 km/h (0 Bft)
12.08.2012 02:46 23,2 C 12,8 C 0,0 UV-I 0,0 C 52 % 85 % 0 % 1017,2 hPa 0,0 l/m 0,0 km/h (0 Bft) 0 min 0 min 0,0 km/h (0 Bft)
12.08.2012 02:48 23,2 C 12,9 C 0,0 UV-I 0,0 C 52 % 86 % 0 % 1017,2 hPa 0,0 l/m 0,0 km/h (0 Bft) 0 min 0 min 0,0 km/h (0 Bft)
12.08.2012 02:50 23,2 C 12,9 C 0,0 UV-I 0,0 C 52 % 86 % 0 % 1017,2 hPa 0,0 l/m 0,0 km/h (0 Bft) 0 min 0 min 0,0 km/h (0 Bft)
12.08.2012 02:52 23,2 C 12,7 C 0,0 UV-I 0,0 C 52 % 86 % 0 % 1017,1 hPa 0,0 l/m 0,0 km/h (0 Bft) 0 min 0 min 0,0 km/h (0 Bft)
12.08.2012 02:54 23,2 C 12,7 C 0,0 UV-I 0,0 C 52 % 86 % 0 % 1017,1 hPa 0,0 l/m 0,0 km/h (0 Bft) 0 min 0 min 0,0 km/h (0 Bft)
12.08.2012 02:56 23,2 C 12,7 C 0,0 UV-I 0,0 C 52 % 86 % 0 % 1017,1 hPa 0,0 l/m 0,0 km/h (0 Bft) 0 min 0 min 0,0 km/h (0 Bft)
12.08.2012 02:58 23,2 C 12,7 C 0,0 UV-I 0,0 C 52 % 86 % 0 % 1017,1 hPa 0,0 l/m 0,0 km/h (0 Bft) 0 min 0 min 0,0 km/h (0 Bft)
12.08.2012 03:00 23,2 C 12,5 C 0,0 UV-I 0,0 C 52 % 86 % 0 % 1017,1 hPa 0,0 l/m 0,0 km/h (0 Bft) 0 min 0 min 0,0 km/h (0 Bft)
12.08.2012 03:02 23,2 C 12,5 C 0,0 UV-I 0,0 C 52 % 86 % 0 % 1017,1 hPa 0,0 l/m 0,0 km/h (0 Bft) 0 min 0 min 0,0 km/h (0 Bft)
12.08.2012 03:04 23,2 C 12,5 C 0,0 UV-I 0,0 C 52 % 86 % 0 % 1017,1 hPa 0,0 l/m 0,0 km/h (0 Bft) 0 min 0 min 0,0 km/h (0 Bft)
12.08.2012 03:06 23,2 C 12,4 C 0,0 UV-I 0,0 C 52 % 86 % 0 % 1017,1 hPa 0,0 l/m 0,0 km/h (0 Bft) 0 min 0 min 0,0 km/h (0 Bft)
12.08.2012 03:08 23,1 C 12,4 C 0,0 UV-I 0,0 C 52 % 86 % 0 % 1017,1 hPa 0,0 l/m 0,0 km/h (0 Bft) 0 min 0 min 0,0 km/h (0 Bft)
12.08.2012 03:10 23,1 C 12,4 C 0,0 UV-I 0,0 C 52 % 86 % 0 % 1017,1 hPa 0,0 l/m 0,0 km/h (0 Bft) 0 min 0 min 0,0 km/h (0 Bft)
12.08.2012 03:12 23,1 C 12,3 C 0,0 UV-I 0,0 C 52 % 86 % 0 % 1017,1 hPa 0,0 l/m 0,0 km/h (0 Bft) 0 min 0 min 0,0 km/h (0 Bft)
12.08.2012 03:14 23,1 C 12,3 C 0,0 UV-I 0,0 C 52 % 86 % 0 % 1017,1 hPa 0,0 l/m 0,0 km/h (0 Bft) 0 min 0 min 0,0 km/h (0 Bft)
12.08.2012 03:16 23,1 C 12,3 C 0,0 UV-I 0,0 C 52 % 87 % 0 % 1017,1 hPa 0,0 l/m 0,0 km/h (0 Bft) 0 min 0 min 0,0 km/h (0 Bft)
12.08.2012 03:18 23,1 C 12,2 C 0,0 UV-I 0,0 C 52 % 87 % 0 % 1017,1 hPa 0,0 l/m 0,0 km/h (0 Bft) 0 min 0 min 0,0 km/h (0 Bft)
12.08.2012 03:20 23,1 C 12,3 C 0,0 UV-I 0,0 C 52 % 87 % 0 % 1017,1 hPa 0,0 l/m 0,0 km/h (0 Bft) 0 min 0 min 0,0 km/h (0 Bft)
12.08.2012 03:22 23,0 C 12,3 C 0,0 UV-I 0,0 C 52 % 87 % 0 % 1017,1 hPa 0,0 l/m 0,0 km/h (0 Bft) 0 min 0 min 0,0 km/h (0 Bft)
12.08.2012 03:24 23,0 C 12,2 C 0,0 UV-I 0,0 C 52 % 87 % 0 % 1017,1 hPa 0,0 l/m 0,0 km/h (0 Bft) 0 min 0 min 0,0 km/h (0 Bft)
12.08.2012 03:26 23,0 C 12,1 C 0,0 UV-I 0,0 C 52 % 87 % 0 % 1017,1 hPa 0,0 l/m 0,0 km/h (0 Bft) 0 min 0 min 0,0 km/h (0 Bft)
12.08.2012 03:28 23,0 C 12,0 C 0,0 UV-I 0,0 C 52 % 87 % 0 % 1017,1 hPa 0,0 l/m 0,0 km/h (0 Bft) 0 min 0 min 0,0 km/h (0 Bft)
12.08.2012 03:30 23,0 C 12,0 C 0,0 UV-I 0,0 C 52 % 87 % 0 % 1017,1 hPa 0,0 l/m 0,0 km/h (0 Bft) 0 min 0 min 0,0 km/h (0 Bft)
12.08.2012 03:32 23,0 C 12,0 C 0,0 UV-I 0,0 C 52 % 87 % 0 % 1017,2 hPa 0,0 l/m 0,0 km/h (0 Bft) 0 min 0 min 0,0 km/h (0 Bft)
12.08.2012 03:34 23,0 C 12,1 C 0,0 UV-I 0,0 C 52 % 87 % 0 % 1017,2 hPa 0,0 l/m 0,0 km/h (0 Bft) 0 min 0 min 0,0 km/h (0 Bft)
12.08.2012 03:36 23,0 C 12,0 C 0,0 UV-I 0,0 C 52 % 87 % 0 % 1017,2 hPa 0,0 l/m 0,0 km/h (0 Bft) 0 min 0 min 0,0 km/h (0 Bft)
12.08.2012 03:38 23,0 C 12,0 C 0,0 UV-I 0,0 C 52 % 87 % 0 % 1017,2 hPa 0,0 l/m 0,0 km/h (0 Bft) 0 min 0 min 0,0 km/h (0 Bft)
12.08.2012 03:40 23,0 C 11,9 C 0,0 UV-I 0,0 C 52 % 87 % 0 % 1017,2 hPa 0,0 l/m 0,0 km/h (0 Bft) 0 min 0 min 0,0 km/h (0 Bft)
12.08.2012 03:42 23,0 C 11,9 C 0,0 UV-I 0,0 C 52 % 88 % 0 % 1017,2 hPa 0,0 l/m 0,0 km/h (0 Bft) 0 min 0 min 0,0 km/h (0 Bft)
12.08.2012 03:44 23,0 C 11,9 C 0,0 UV-I 0,0 C 52 % 88 % 0 % 1017,2 hPa 0,0 l/m 0,0 km/h (0 Bft) 0 min 0 min 0,0 km/h (0 Bft)
12.08.2012 03:46 22,9 C 11,8 C 0,0 UV-I 0,0 C 52 % 88 % 0 % 1017,2 hPa 0,0 l/m 0,0 km/h (0 Bft) 0 min 0 min 0,0 km/h (0 Bft)
12.08.2012 03:48 22,9 C 11,9 C 0,0 UV-I 0,0 C 52 % 88 % 0 % 1017,2 hPa 0,0 l/m 0,0 km/h (0 Bft) 0 min 0 min 0,0 km/h (0 Bft)
12.08.2012 03:50 22,9 C 11,9 C 0,0 UV-I 0,0 C 52 % 88 % 0 % 1017,2 hPa 0,0 l/m 0,0 km/h (0 Bft) 0 min 0 min 0,0 km/h (0 Bft)
12.08.2012 03:52 22,9 C 11,8 C 0,0 UV-I 0,0 C 52 % 88 % 0 % 1017,1 hPa 0,0 l/m 0,0 km/h (0 Bft) 0 min 0 min 0,0 km/h (0 Bft)
12.08.2012 03:54 22,9 C 11,7 C 0,0 UV-I 0,0 C 52 % 88 % 0 % 1017,1 hPa 0,0 l/m 0,0 km/h (0 Bft) 0 min 0 min 0,0 km/h (0 Bft)
12.08.2012 03:56 22,9 C 11,7 C 0,0 UV-I 0,0 C 52 % 88 % 0 % 1017,1 hPa 0,0 l/m 0,0 km/h (0 Bft) 0 min 0 min 0,0 km/h (0 Bft)
12.08.2012 03:58 22,9 C 11,7 C 0,0 UV-I 0,0 C 52 % 88 % 0 % 1017,1 hPa 0,0 l/m 0,0 km/h (0 Bft) 0 min 0 min 0,0 km/h (0 Bft)
12.08.2012 04:00 22,8 C 11,6 C 0,0 UV-I 0,0 C 52 % 88 % 0 % 1017,1 hPa 0,0 l/m 0,0 km/h (0 Bft) 0 min 0 min 0,0 km/h (0 Bft)
12.08.2012 04:02 22,9 C 11,6 C 0,0 UV-I 0,0 C 52 % 88 % 0 % 1017,1 hPa 0,0 l/m 0,0 km/h (0 Bft) 0 min 0 min 0,0 km/h (0 Bft)
12.08.2012 04:04 22,8 C 11,6 C 0,0 UV-I 0,0 C 52 % 88 % 0 % 1017,1 hPa 0,0 l/m 0,0 km/h (0 Bft) 0 min 0 min 0,0 km/h (0 Bft)
12.08.2012 04:06 22,8 C 11,7 C 0,0 UV-I 0,0 C 52 % 88 % 0 % 1017,1 hPa 0,0 l/m 0,0 km/h (0 Bft) 0 min 0 min 0,0 km/h (0 Bft)
12.08.2012 04:08 22,8 C 11,6 C 0,0 UV-I 0,0 C 52 % 88 % 0 % 1017,1 hPa 0,0 l/m 0,0 km/h (0 Bft) 0 min 0 min 0,0 km/h (0 Bft)
12.08.2012 04:10 22,8 C 11,6 C 0,0 UV-I 0,0 C 52 % 88 % 0 % 1017,1 hPa 0,0 l/m 0,0 km/h (0 Bft) 0 min 0 min 0,0 km/h (0 Bft)
12.08.2012 04:12 22,8 C 11,5 C 0,0 UV-I 0,0 C 52 % 88 % 0 % 1016,9 hPa 0,0 l/m 0,0 km/h (0 Bft) 0 min 0 min 0,0 km/h (0 Bft)
12.08.2012 04:14 22,8 C 11,5 C 0,0 UV-I 0,0 C 52 % 88 % 0 % 1016,9 hPa 0,0 l/m 0,0 km/h (0 Bft) 0 min 0 min 0,0 km/h (0 Bft)
12.08.2012 04:16 22,8 C 11,5 C 0,0 UV-I 0,0 C 52 % 88 % 0 % 1016,9 hPa 0,0 l/m 0,0 km/h (0 Bft) 0 min 0 min 0,0 km/h (0 Bft)
12.08.2012 04:18 22,8 C 11,5 C 0,0 UV-I 0,0 C 52 % 88 % 0 % 1016,9 hPa 0,0 l/m 0,0 km/h (0 Bft) 0 min 0 min 0,0 km/h (0 Bft)
12.08.2012 04:20 22,8 C 11,5 C 0,0 UV-I 0,0 C 52 % 88 % 0 % 1016,9 hPa 0,0 l/m 0,0 km/h (0 Bft) 0 min 0 min 0,0 km/h (0 Bft)
12.08.2012 04:22 22,8 C 11,4 C 0,0 UV-I 0,0 C 52 % 88 % 0 % 1016,9 hPa 0,0 l/m 0,0 km/h (0 Bft) 0 min 0 min 0,0 km/h (0 Bft)
12.08.2012 04:24 22,8 C 11,3 C 0,0 UV-I 0,0 C 52 % 88 % 0 % 1016,9 hPa 0,0 l/m 0,0 km/h (0 Bft) 0 min 0 min 0,0 km/h (0 Bft)
12.08.2012 04:26 22,8 C 11,3 C 0,0 UV-I 0,0 C 52 % 89 % 0 % 1016,9 hPa 0,0 l/m 0,0 km/h (0 Bft) 0 min 0 min 0,0 km/h (0 Bft)
12.08.2012 04:28 22,8 C 11,2 C 0,0 UV-I 0,0 C 53 % 89 % 0 % 1016,9 hPa 0,0 l/m 0,0 km/h (0 Bft) 0 min 0 min 0,0 km/h (0 Bft)
12.08.2012 04:30 22,8 C 11,2 C 0,0 UV-I 0,0 C 53 % 89 % 0 % 1016,9 hPa 0,0 l/m 0,0 km/h (0 Bft) 0 min 0 min 0,0 km/h (0 Bft)
12.08.2012 04:32 22,7 C 11,3 C 0,0 UV-I 0,0 C 53 % 89 % 0 % 1016,9 hPa 0,0 l/m 0,0 km/h (0 Bft) 0 min 0 min 0,0 km/h (0 Bft)
12.08.2012 04:34 22,8 C 11,2 C 0,0 UV-I 0,0 C 53 % 89 % 0 % 1016,9 hPa 0,0 l/m 0,0 km/h (0 Bft) 0 min 0 min 0,0 km/h (0 Bft)
12.08.2012 04:36 22,7 C 11,1 C 0,0 UV-I 0,0 C 53 % 89 % 0 % 1016,9 hPa 0,0 l/m 0,0 km/h (0 Bft) 0 min 0 min 0,0 km/h (0 Bft)
12.08.2012 04:38 22,7 C 11,1 C 0,0 UV-I 0,0 C 53 % 89 % 0 % 1016,9 hPa 0,0 l/m 0,0 km/h (0 Bft) 0 min 0 min 0,0 km/h (0 Bft)
12.08.2012 04:40 22,7 C 11,0 C 0,0 UV-I 0,0 C 53 % 89 % 0 % 1016,9 hPa 0,0 l/m 0,0 km/h (0 Bft) 0 min 0 min 0,0 km/h (0 Bft)
12.08.2012 04:42 22,7 C 11,0 C 0,0 UV-I 0,0 C 53 % 89 % 0 % 1016,9 hPa 0,0 l/m 0,0 km/h (0 Bft) 0 min 0 min 0,0 km/h (0 Bft)
12.08.2012 04:44 22,7 C 11,1 C 0,0 UV-I 0,0 C 53 % 89 % 0 % 1016,9 hPa 0,0 l/m 0,0 km/h (0 Bft) 0 min 0 min 0,0 km/h (0 Bft)
12.08.2012 04:46 22,7 C 11,1 C 0,0 UV-I 0,0 C 53 % 89 % 0 % 1016,9 hPa 0,0 l/m 0,0 km/h (0 Bft) 0 min 0 min 0,0 km/h (0 Bft)
12.08.2012 04:48 22,7 C 11,1 C 0,0 UV-I 0,0 C 53 % 89 % 0 % 1016,9 hPa 0,0 l/m 0,0 km/h (0 Bft) 0 min 0 min 0,0 km/h (0 Bft)
12.08.2012 04:50 22,7 C 11,1 C 0,0 UV-I 0,0 C 53 % 89 % 0 % 1016,9 hPa 0,0 l/m 0,0 km/h (0 Bft) 0 min 0 min 0,0 km/h (0 Bft)
12.08.2012 04:52 22,7 C 11,1 C 0,0 UV-I 0,0 C 53 % 90 % 0 % 1016,8 hPa 0,0 l/m 0,0 km/h (0 Bft) 0 min 0 min 0,0 km/h (0 Bft)
12.08.2012 04:54 22,7 C 11,1 C 0,0 UV-I 0,0 C 53 % 90 % 0 % 1016,8 hPa 0,0 l/m 0,0 km/h (0 Bft) 0 min 0 min 0,0 km/h (0 Bft)
12.08.2012 04:56 22,7 C 11,1 C 0,0 UV-I 0,0 C 53 % 90 % 0 % 1016,8 hPa 0,0 l/m 0,0 km/h (0 Bft) 0 min 0 min 0,0 km/h (0 Bft)
12.08.2012 04:58 22,6 C 11,1 C 0,0 UV-I 0,0 C 53 % 90 % 0 % 1016,8 hPa 0,0 l/m 0,0 km/h (0 Bft) 0 min 0 min 0,0 km/h (0 Bft)
12.08.2012 05:00 22,7 C 11,1 C 0,0 UV-I 0,0 C 53 % 90 % 0 % 1016,8 hPa 0,0 l/m 0,0 km/h (0 Bft) 0 min 0 min 0,0 km/h (0 Bft)
12.08.2012 05:02 22,6 C 11,0 C 0,0 UV-I 0,0 C 53 % 90 % 0 % 1016,8 hPa 0,0 l/m 0,0 km/h (0 Bft) 0 min 0 min 0,0 km/h (0 Bft)
12.08.2012 05:04 22,6 C 11,0 C 0,0 UV-I 0,0 C 53 % 90 % 0 % 1016,8 hPa 0,0 l/m 0,0 km/h (0 Bft) 0 min 0 min 0,0 km/h (0 Bft)
12.08.2012 05:06 22,6 C 11,1 C 0,0 UV-I 0,0 C 53 % 90 % 0 % 1016,8 hPa 0,0 l/m 0,0 km/h (0 Bft) 0 min 0 min 0,0 km/h (0 Bft)
12.08.2012 05:08 22,6 C 11,0 C 0,0 UV-I 0,0 C 53 % 90 % 0 % 1016,8 hPa 0,0 l/m 0,0 km/h (0 Bft) 0 min 0 min 0,0 km/h (0 Bft)
12.08.2012 05:10 22,6 C 11,0 C 0,0 UV-I 0,0 C 53 % 90 % 0 % 1016,8 hPa 0,0 l/m 0,0 km/h (0 Bft) 0 min 0 min 0,0 km/h (0 Bft)
12.08.2012 05:12 22,6 C 10,9 C 0,0 UV-I 0,0 C 53 % 90 % 0 % 1016,8 hPa 0,0 l/m 0,0 km/h (0 Bft) 0 min 0 min 0,0 km/h (0 Bft)
12.08.2012 05:14 22,6 C 10,9 C 0,0 UV-I 0,0 C 53 % 90 % 0 % 1016,8 hPa 0,0 l/m 0,0 km/h (0 Bft) 0 min 0 min 0,0 km/h (0 Bft)
12.08.2012 05:16 22,6 C 10,9 C 0,0 UV-I 0,0 C 53 % 90 % 0 % 1016,8 hPa 0,0 l/m 0,0 km/h (0 Bft) 0 min 0 min 0,0 km/h (0 Bft)
12.08.2012 05:18 22,6 C 10,9 C 0,0 UV-I 0,0 C 53 % 90 % 0 % 1016,8 hPa 0,0 l/m 0,0 km/h (0 Bft) 0 min 0 min 0,0 km/h (0 Bft)
12.08.2012 05:20 22,6 C 10,9 C 0,0 UV-I 0,0 C 53 % 90 % 0 % 1016,8 hPa 0,0 l/m 0,0 km/h (0 Bft) 0 min 0 min 0,0 km/h (0 Bft)
12.08.2012 05:22 22,6 C 10,8 C 0,0 UV-I 0,0 C 53 % 90 % 0 % 1016,8 hPa 0,0 l/m 0,0 km/h (0 Bft) 0 min 0 min 0,0 km/h (0 Bft)
12.08.2012 05:24 22,6 C 10,8 C 0,0 UV-I 0,0 C 53 % 90 % 0 % 1016,8 hPa 0,0 l/m 0,0 km/h (0 Bft) 0 min 0 min 0,0 km/h (0 Bft)
12.08.2012 05:26 22,6 C 10,9 C 0,0 UV-I 0,0 C 53 % 90 % 0 % 1016,8 hPa 0,0 l/m 0,0 km/h (0 Bft) 0 min 0 min 0,0 km/h (0 Bft)
12.08.2012 05:28 22,5 C 10,9 C 0,0 UV-I 0,0 C 53 % 90 % 0 % 1016,8 hPa 0,0 l/m 0,0 km/h (0 Bft) 0 min 2 min 0,0 km/h (0 Bft)
12.08.2012 05:30 22,5 C 10,9 C 0,0 UV-I 0,0 C 53 % 90 % 0 % 1016,8 hPa 0,0 l/m 0,0 km/h (0 Bft) 0 min 0 min 0,0 km/h (0 Bft)
12.08.2012 05:32 22,5 C 10,7 C 0,0 UV-I 0,0 C 53 % 90 % 0 % 1016,4 hPa 0,0 l/m 0,0 km/h (0 Bft) 0 min 0 min 0,0 km/h (0 Bft)
12.08.2012 05:34 22,5 C 10,7 C 0,0 UV-I 0,0 C 53 % 90 % 0 % 1016,4 hPa 0,0 l/m 0,0 km/h (0 Bft) 0 min 0 min 0,0 km/h (0 Bft)
12.08.2012 05:36 22,5 C 10,7 C 0,0 UV-I 0,0 C 53 % 90 % 0 % 1016,4 hPa 0,0 l/m 0,0 km/h (0 Bft) 0 min 0 min 0,0 km/h (0 Bft)
12.08.2012 05:38 22,5 C 10,7 C 0,0 UV-I 0,0 C 53 % 90 % 0 % 1016,4 hPa 0,0 l/m 0,0 km/h (0 Bft) 0 min 0 min 0,0 km/h (0 Bft)
12.08.2012 05:40 22,5 C 10,7 C 0,0 UV-I 0,0 C 53 % 90 % 0 % 1016,4 hPa 0,0 l/m 0,0 km/h (0 Bft) 0 min 0 min 0,0 km/h (0 Bft)
12.08.2012 05:42 22,5 C 10,7 C 0,0 UV-I 0,0 C 53 % 90 % 0 % 1016,4 hPa 0,0 l/m 0,0 km/h (0 Bft) 0 min 0 min 0,0 km/h (0 Bft)
12.08.2012 05:44 22,5 C 10,7 C 0,0 UV-I 0,0 C 53 % 90 % 0 % 1016,4 hPa 0,0 l/m 0,0 km/h (0 Bft) 0 min 0 min 0,0 km/h (0 Bft)
12.08.2012 05:46 22,5 C 10,6 C 0,0 UV-I 0,0 C 53 % 90 % 0 % 1016,4 hPa 0,0 l/m 0,0 km/h (0 Bft) 0 min 0 min 0,0 km/h (0 Bft)
12.08.2012 05:48 22,4 C 10,5 C 0,0 UV-I 0,0 C 53 % 90 % 0 % 1016,4 hPa 0,0 l/m 0,0 km/h (0 Bft) 0 min 0 min 0,0 km/h (0 Bft)
12.08.2012 05:50 22,4 C 10,5 C 0,0 UV-I 0,0 C 53 % 90 % 0 % 1016,4 hPa 0,0 l/m 0,0 km/h (0 Bft) 0 min 0 min 0,0 km/h (0 Bft)
12.08.2012 05:52 22,4 C 10,5 C 0,0 UV-I 0,0 C 53 % 90 % 0 % 1016,5 hPa 0,0 l/m 0,0 km/h (0 Bft) 0 min 0 min 0,0 km/h (0 Bft)
12.08.2012 05:54 22,4 C 10,4 C 0,0 UV-I 0,0 C 53 % 90 % 0 % 1016,5 hPa 0,0 l/m 0,0 km/h (0 Bft) 0 min 0 min 0,0 km/h (0 Bft)
12.08.2012 05:56 22,4 C 10,4 C 0,0 UV-I 0,0 C 53 % 91 % 0 % 1016,5 hPa 0,0 l/m 0,0 km/h (0 Bft) 0 min 0 min 0,0 km/h (0 Bft)
12.08.2012 05:58 22,4 C 10,4 C 0,0 UV-I 0,0 C 53 % 91 % 0 % 1016,5 hPa 0,0 l/m 0,0 km/h (0 Bft) 0 min 0 min 0,0 km/h (0 Bft)
12.08.2012 06:00 22,4 C 10,5 C 0,0 UV-I 0,0 C 53 % 91 % 0 % 1016,5 hPa 0,0 l/m 0,0 km/h (0 Bft) 0 min 0 min 0,0 km/h (0 Bft)
12.08.2012 06:02 22,4 C 10,5 C 0,0 UV-I 0,0 C 53 % 91 % 0 % 1016,5 hPa 0,0 l/m 0,0 km/h (0 Bft) 0 min 0 min 0,0 km/h (0 Bft)
12.08.2012 06:04 22,4 C 10,5 C 0,0 UV-I 0,0 C 53 % 91 % 0 % 1016,5 hPa 0,0 l/m 0,0 km/h (0 Bft) 0 min 0 min 0,0 km/h (0 Bft)
12.08.2012 06:06 22,4 C 10,3 C 0,0 UV-I 0,0 C 53 % 91 % 0 % 1016,5 hPa 0,0 l/m 0,0 km/h (0 Bft) 0 min 0 min 0,0 km/h (0 Bft)
12.08.2012 06:08 22,4 C 10,3 C 0,0 UV-I 0,0 C 53 % 91 % 0 % 1016,5 hPa 0,0 l/m 0,0 km/h (0 Bft) 0 min 0 min 0,0 km/h (0 Bft)
12.08.2012 06:10 22,4 C 10,3 C 0,0 UV-I 0,0 C 53 % 91 % 0 % 1016,5 hPa 0,0 l/m 0,0 km/h (0 Bft) 0 min 0 min 0,0 km/h (0 Bft)
12.08.2012 06:12 22,4 C 10,3 C 0,0 UV-I 0,0 C 53 % 91 % 0 % 1016,2 hPa 0,0 l/m 0,0 km/h (0 Bft) 0 min 0 min 0,0 km/h (0 Bft)
12.08.2012 06:14 22,4 C 10,3 C 0,0 UV-I 0,0 C 53 % 91 % 0 % 1016,2 hPa 0,0 l/m 0,0 km/h (0 Bft) 0 min 0 min 0,0 km/h (0 Bft)
12.08.2012 06:16 22,4 C 10,1 C 0,0 UV-I 0,0 C 53 % 91 % 0 % 1016,2 hPa 0,0 l/m 0,0 km/h (0 Bft) 0 min 0 min 0,0 km/h (0 Bft)
12.08.2012 06:18 22,4 C 10,1 C 0,0 UV-I 0,0 C 53 % 91 % 0 % 1016,2 hPa 0,0 l/m 0,0 km/h (0 Bft) 0 min 0 min 0,0 km/h (0 Bft)
12.08.2012 06:20 22,2 C 10,1 C 0,0 UV-I 0,0 C 53 % 91 % 0 % 1016,2 hPa 0,0 l/m 0,0 km/h (0 Bft) 0 min 0 min 0,0 km/h (0 Bft)
12.08.2012 06:22 22,2 C 10,0 C 0,0 UV-I 0,0 C 53 % 91 % 0 % 1016,2 hPa 0,0 l/m 0,0 km/h (0 Bft) 0 min 0 min 0,0 km/h (0 Bft)
12.08.2012 06:24 22,2 C 10,0 C 0,0 UV-I 0,0 C 53 % 91 % 0 % 1016,2 hPa 0,0 l/m 0,0 km/h (0 Bft) 0 min 0 min 0,0 km/h (0 Bft)
12.08.2012 06:26 22,2 C 10,0 C 0,0 UV-I 0,0 C 53 % 91 % 0 % 1016,2 hPa 0,0 l/m 0,0 km/h (0 Bft) 0 min 0 min 0,0 km/h (0 Bft)
12.08.2012 06:28 22,2 C 10,0 C 0,0 UV-I 0,0 C 53 % 91 % 0 % 1016,2 hPa 0,0 l/m 0,0 km/h (0 Bft) 0 min 0 min 0,0 km/h (0 Bft)
12.08.2012 06:30 22,2 C 10,0 C 0,0 UV-I 0,0 C 53 % 91 % 0 % 1016,2 hPa 0,0 l/m 0,0 km/h (0 Bft) 0 min 0 min 0,0 km/h (0 Bft)
12.08.2012 06:32 22,2 C 10,0 C 0,0 UV-I 0,0 C 53 % 91 % 0 % 1016,2 hPa 0,0 l/m 0,0 km/h (0 Bft) 0 min 0 min 0,0 km/h (0 Bft)
12.08.2012 06:34 22,2 C 10,1 C 0,0 UV-I 0,0 C 53 % 91 % 0 % 1016,2 hPa 0,0 l/m 0,0 km/h (0 Bft) 0 min 0 min 0,0 km/h (0 Bft)
12.08.2012 06:36 22,3 C 10,0 C 0,0 UV-I 0,0 C 53 % 91 % 0 % 1016,2 hPa 0,0 l/m 0,0 km/h (0 Bft) 0 min 0 min 0,0 km/h (0 Bft)
12.08.2012 06:38 22,3 C 10,1 C 0,0 UV-I 0,0 C 53 % 91 % 0 % 1016,2 hPa 0,0 l/m 0,0 km/h (0 Bft) 0 min 0 min 0,0 km/h (0 Bft)
12.08.2012 06:40 22,3 C 10,0 C 0,0 UV-I 0,0 C 53 % 91 % 0 % 1016,2 hPa 0,0 l/m 0,0 km/h (0 Bft) 0 min 0 min 0,0 km/h (0 Bft)
12.08.2012 06:42 22,3 C 10,1 C 0,0 UV-I 0,0 C 53 % 92 % 0 % 1016,2 hPa 0,0 l/m 0,0 km/h (0 Bft) 0 min 0 min 0,0 km/h (0 Bft)
12.08.2012 06:44 22,3 C 10,0 C 0,0 UV-I 0,0 C 53 % 92 % 0 % 1016,2 hPa 0,0 l/m 0,0 km/h (0 Bft) 0 min 0 min 0,0 km/h (0 Bft)
12.08.2012 06:46 22,3 C 10,0 C 0,0 UV-I 0,0 C 53 % 92 % 0 % 1016,2 hPa 0,0 l/m 0,0 km/h (0 Bft) 0 min 0 min 0,0 km/h (0 Bft)
12.08.2012 06:48 22,3 C 10,0 C 0,0 UV-I 0,0 C 53 % 92 % 0 % 1016,2 hPa 0,0 l/m 0,0 km/h (0 Bft) 0 min 0 min 0,0 km/h (0 Bft)
12.08.2012 06:50 22,3 C 10,0 C 0,0 UV-I 0,0 C 53 % 92 % 0 % 1016,2 hPa 0,0 l/m 0,0 km/h (0 Bft) 0 min 0 min 0,0 km/h (0 Bft)
12.08.2012 06:52 22,2 C 10,0 C 0,0 UV-I 0,0 C 53 % 92 % 0 % 1015,9 hPa 0,0 l/m 0,0 km/h (0 Bft) 0 min 0 min 0,0 km/h (0 Bft)
12.08.2012 06:54 22,3 C 10,1 C 0,0 UV-I 0,0 C 53 % 92 % 0 % 1015,9 hPa 0,0 l/m 0,0 km/h (0 Bft) 0 min 0 min 0,0 km/h (0 Bft)
12.08.2012 06:56 22,2 C 10,1 C 0,0 UV-I 0,0 C 53 % 92 % 0 % 1015,9 hPa 0,0 l/m 0,0 km/h (0 Bft) 0 min 0 min 0,0 km/h (0 Bft)
12.08.2012 06:58 22,2 C 10,1 C 0,0 UV-I 0,0 C 53 % 92 % 0 % 1015,9 hPa 0,0 l/m 0,0 km/h (0 Bft) 0 min 0 min 0,0 km/h (0 Bft)
12.08.2012 07:00 22,2 C 10,2 C 0,0 UV-I 0,0 C 53 % 92 % 0 % 1015,9 hPa 0,0 l/m 0,0 km/h (0 Bft) 0 min 0 min 0,0 km/h (0 Bft)
12.08.2012 07:02 22,2 C 10,1 C 0,0 UV-I 0,0 C 53 % 92 % 0 % 1015,9 hPa 0,0 l/m 0,0 km/h (0 Bft) 0 min 0 min 0,0 km/h (0 Bft)
12.08.2012 07:04 22,2 C 10,2 C 0,0 UV-I 0,0 C 53 % 92 % 0 % 1015,9 hPa 0,0 l/m 0,0 km/h (0 Bft) 0 min 0 min 0,0 km/h (0 Bft)
12.08.2012 07:06 22,2 C 10,3 C 0,0 UV-I 0,0 C 53 % 92 % 0 % 1015,9 hPa 0,0 l/m 0,0 km/h (0 Bft) 0 min 0 min 0,0 km/h (0 Bft)
12.08.2012 07:08 22,2 C 10,2 C 0,0 UV-I 0,0 C 53 % 92 % 0 % 1015,9 hPa 0,0 l/m 0,0 km/h (0 Bft) 0 min 0 min 0,0 km/h (0 Bft)
12.08.2012 07:10 22,2 C 10,2 C 0,0 UV-I 0,0 C 53 % 92 % 0 % 1016,2 hPa 0,0 l/m 0,0 km/h (0 Bft) 0 min 0 min 0,0 km/h (0 Bft)
12.08.2012 07:12 22,2 C 10,3 C 0,0 UV-I 0,0 C 53 % 92 % 0 % 1016,2 hPa 0,0 l/m 0,0 km/h (0 Bft) 0 min 0 min 0,0 km/h (0 Bft)
12.08.2012 07:14 22,2 C 10,3 C 0,0 UV-I 0,0 C 53 % 92 % 0 % 1016,2 hPa 0,0 l/m 0,0 km/h (0 Bft) 0 min 0 min 0,0 km/h (0 Bft)
12.08.2012 07:16 22,2 C 10,2 C 0,0 UV-I 0,0 C 53 % 92 % 0 % 1016,2 hPa 0,0 l/m 0,0 km/h (0 Bft) 0 min 0 min 0,0 km/h (0 Bft)
12.08.2012 07:18 22,2 C 10,2 C 0,0 UV-I 0,0 C 53 % 92 % 0 % 1016,2 hPa 0,0 l/m 0,0 km/h (0 Bft) 0 min 0 min 0,0 km/h (0 Bft)
12.08.2012 07:20 22,2 C 10,3 C 0,0 UV-I 0,0 C 53 % 92 % 0 % 1016,2 hPa 0,0 l/m 0,0 km/h (0 Bft) 0 min 0 min 0,0 km/h (0 Bft)
12.08.2012 07:22 22,2 C 10,2 C 0,0 UV-I 0,0 C 53 % 92 % 0 % 1016,2 hPa 0,0 l/m 0,0 km/h (0 Bft) 0 min 0 min 0,0 km/h (0 Bft)
12.08.2012 07:24 22,2 C 10,2 C 0,0 UV-I 0,0 C 53 % 92 % 0 % 1016,2 hPa 0,0 l/m 0,0 km/h (0 Bft) 0 min 0 min 0,0 km/h (0 Bft)
12.08.2012 07:26 22,2 C 10,3 C 0,0 UV-I 0,0 C 53 % 92 % 0 % 1016,2 hPa 0,0 l/m 0,0 km/h (0 Bft) 0 min 0 min 0,0 km/h (0 Bft)
12.08.2012 07:28 22,2 C 10,3 C 0,0 UV-I 0,0 C 53 % 92 % 0 % 1016,2 hPa 0,0 l/m 0,0 km/h (0 Bft) 0 min 0 min 0,0 km/h (0 Bft)
12.08.2012 07:30 22,2 C 10,3 C 0,0 UV-I 0,0 C 53 % 92 % 0 % 1015,9 hPa 0,0 l/m 0,0 km/h (0 Bft) 0 min 0 min 0,0 km/h (0 Bft)
12.08.2012 07:32 22,2 C 10,4 C 0,0 UV-I 0,0 C 53 % 93 % 0 % 1015,9 hPa 0,0 l/m 0,0 km/h (0 Bft) 0 min 0 min 0,0 km/h (0 Bft)
12.08.2012 07:34 22,2 C 10,6 C 0,0 UV-I 0,0 C 53 % 93 % 0 % 1015,9 hPa 0,0 l/m 0,0 km/h (0 Bft) 0 min 0 min 0,0 km/h (0 Bft)
12.08.2012 07:36 22,2 C 10,7 C 0,0 UV-I 0,0 C 53 % 93 % 0 % 1015,9 hPa 0,0 l/m 0,0 km/h (0 Bft) 0 min 0 min 0,0 km/h (0 Bft)
12.08.2012 07:38 22,2 C 10,7 C 0,0 UV-I 0,0 C 53 % 93 % 0 % 1015,9 hPa 0,0 l/m 0,0 km/h (0 Bft) 0 min 0 min 0,0 km/h (0 Bft)
12.08.2012 07:40 22,2 C 10,8 C 0,0 UV-I 0,0 C 53 % 93 % 0 % 1015,9 hPa 0,0 l/m 0,0 km/h (0 Bft) 0 min 0 min 0,0 km/h (0 Bft)
12.08.2012 07:42 22,2 C 10,9 C 0,0 UV-I 0,0 C 53 % 93 % 0 % 1015,9 hPa 0,0 l/m 0,0 km/h (0 Bft) 0 min 0 min 0,0 km/h (0 Bft)
12.08.2012 07:44 22,2 C 10,9 C 0,0 UV-I 0,0 C 53 % 93 % 0 % 1015,9 hPa 0,0 l/m 0,0 km/h (0 Bft) 0 min 0 min 0,0 km/h (0 Bft)
12.08.2012 07:46 22,2 C 11,0 C 0,0 UV-I 0,0 C 53 % 94 % 0 % 1015,9 hPa 0,0 l/m 0,0 km/h (0 Bft) 0 min 0 min 0,0 km/h (0 Bft)
12.08.2012 07:48 22,2 C 11,1 C 0,0 UV-I 0,0 C 53 % 94 % 0 % 1015,9 hPa 0,0 l/m 0,0 km/h (0 Bft) 0 min 0 min 0,0 km/h (0 Bft)
12.08.2012 07:50 22,2 C 11,1 C 0,0 UV-I 0,0 C 53 % 94 % 0 % 1015,9 hPa 0,0 l/m 0,0 km/h (0 Bft) 0 min 0 min 0,0 km/h (0 Bft)
12.08.2012 07:52 22,2 C 11,3 C 0,1 UV-I 0,0 C 53 % 94 % 0 % 1015,9 hPa 0,0 l/m 0,0 km/h (0 Bft) 0 min 0 min 0,0 km/h (0 Bft)
12.08.2012 07:54 22,2 C 11,2 C 0,1 UV-I 0,0 C 53 % 93 % 0 % 1015,9 hPa 0,0 l/m 0,0 km/h (0 Bft) 0 min 0 min 0,0 km/h (0 Bft)
12.08.2012 07:56 22,2 C 11,2 C 0,1 UV-I 0,0 C 53 % 93 % 0 % 1015,9 hPa 0,0 l/m 0,0 km/h (0 Bft) 0 min 0 min 0,0 km/h (0 Bft)
12.08.2012 07:58 22,2 C 11,3 C 0,1 UV-I 0,0 C 53 % 93 % 0 % 1015,9 hPa 0,0 l/m 0,0 km/h (0 Bft) 0 min 0 min 0,0 km/h (0 Bft)
12.08.2012 08:00 22,2 C 11,3 C 0,1 UV-I 0,0 C 53 % 93 % 0 % 1015,9 hPa 0,0 l/m 0,0 km/h (0 Bft) 0 min 0 min 0,0 km/h (0 Bft)
12.08.2012 08:02 22,2 C 11,4 C 0,1 UV-I 0,0 C 53 % 93 % 0 % 1015,9 hPa 0,0 l/m 0,0 km/h (0 Bft) 0 min 0 min 0,0 km/h (0 Bft)
12.08.2012 08:04 22,2 C 11,5 C 0,1 UV-I 0,0 C 53 % 93 % 0 % 1015,9 hPa 0,0 l/m 0,0 km/h (0 Bft) 0 min 0 min 0,0 km/h (0 Bft)
12.08.2012 08:06 22,2 C 11,7 C 0,1 UV-I 0,0 C 53 % 94 % 0 % 1015,9 hPa 0,0 l/m 0,0 km/h (0 Bft) 0 min 0 min 0,0 km/h (0 Bft)
12.08.2012 08:08 22,2 C 11,6 C 0,1 UV-I 0,1 C 53 % 93 % 3 % 1015,9 hPa 0,0 l/m 0,0 km/h (0 Bft) 0 min 0 min 0,0 km/h (0 Bft)
12.08.2012 08:10 22,2 C 11,6 C 0,1 UV-I 0,1 C 53 % 93 % 3 % 1015,9 hPa 0,0 l/m 0,0 km/h (0 Bft) 0 min 0 min 0,0 km/h (0 Bft)
12.08.2012 08:12 22,2 C 11,8 C 0,2 UV-I 0,2 C 53 % 94 % 6 % 1015,9 hPa 0,0 l/m 0,0 km/h (0 Bft) 0 min 0 min 0,0 km/h (0 Bft)
12.08.2012 08:14 22,2 C 12,0 C 0,2 UV-I 0,1 C 53 % 94 % 3 % 1015,9 hPa 0,0 l/m 0,0 km/h (0 Bft) 0 min 0 min 0,0 km/h (0 Bft)
12.08.2012 08:16 22,2 C 12,0 C 0,2 UV-I 0,4 C 53 % 94 % 11 % 1015,9 hPa 0,0 l/m 0,0 km/h (0 Bft) 0 min 0 min 0,0 km/h (0 Bft)
12.08.2012 08:18 22,2 C 12,1 C 0,2 UV-I 0,5 C 53 % 94 % 14 % 1015,9 hPa 0,0 l/m 0,0 km/h (0 Bft) 0 min 0 min 0,0 km/h (0 Bft)
12.08.2012 08:20 22,2 C 12,3 C 0,2 UV-I 0,4 C 53 % 94 % 11 % 1015,9 hPa 0,0 l/m 0,0 km/h (0 Bft) 0 min 0 min 0,0 km/h (0 Bft)
12.08.2012 08:22 22,2 C 12,5 C 0,2 UV-I 0,4 C 53 % 94 % 11 % 1015,9 hPa 0,0 l/m 0,0 km/h (0 Bft) 0 min 0 min 0,0 km/h (0 Bft)
12.08.2012 08:24 22,2 C 12,5 C 0,2 UV-I 0,6 C 53 % 93 % 17 % 1015,9 hPa 0,0 l/m 0,4 km/h (0 Bft) 0 min 0 min 0,0 km/h (0 Bft)
12.08.2012 08:26 22,2 C 12,7 C 0,2 UV-I 0,6 C 53 % 93 % 17 % 1015,9 hPa 0,0 l/m 0,4 km/h (0 Bft) 0 min 0 min 5,6 km/h (1 Bft)
12.08.2012 08:28 22,2 C 12,9 C 0,2 UV-I 0,5 C 53 % 93 % 14 % 1015,9 hPa 0,0 l/m 0,8 km/h (0 Bft) 0 min 0 min 5,6 km/h (1 Bft)
12.08.2012 08:30 22,2 C 12,9 C 0,2 UV-I 0,5 C 53 % 93 % 14 % 1016,1 hPa 0,0 l/m 0,8 km/h (0 Bft) 0 min 0 min 0,0 km/h (0 Bft)
12.08.2012 08:32 22,2 C 13,1 C 0,3 UV-I 0,8 C 54 % 93 % 23 % 1016,1 hPa 0,0 l/m 1,2 km/h (1 Bft) 0 min 0 min 6,0 km/h (2 Bft)
12.08.2012 08:34 22,2 C 13,3 C 0,3 UV-I 1,6 C 54 % 93 % 46 % 1016,1 hPa 0,0 l/m 1,6 km/h (1 Bft) 0 min 0 min 6,4 km/h (2 Bft)
12.08.2012 08:36 22,3 C 13,3 C 0,3 UV-I 2,9 C 53 % 92 % 83 % 1016,1 hPa 0,0 l/m 2,0 km/h (1 Bft) 2 min 0 min 6,4 km/h (2 Bft)
12.08.2012 08:38 22,3 C 13,6 C 0,3 UV-I 4,2 C 53 % 93 % 100 % 1016,1 hPa 0,0 l/m 2,4 km/h (1 Bft) 2 min 0 min 5,2 km/h (1 Bft)
12.08.2012 08:40 22,3 C 13,7 C 0,4 UV-I 5,1 C 54 % 92 % 100 % 1016,1 hPa 0,0 l/m 2,4 km/h (1 Bft) 2 min 0 min 5,2 km/h (1 Bft)
12.08.2012 08:42 22,3 C 14,0 C 0,4 UV-I 6,0 C 53 % 92 % 100 % 1016,1 hPa 0,0 l/m 2,0 km/h (1 Bft) 2 min 0 min 11,2 km/h (2 Bft)
12.08.2012 08:44 22,3 C 14,1 C 0,4 UV-I 6,8 C 53 % 92 % 100 % 1016,1 hPa 0,0 l/m 2,4 km/h (1 Bft) 2 min 0 min 5,2 km/h (1 Bft)
12.08.2012 08:46 22,3 C 14,3 C 0,4 UV-I 7,2 C 54 % 91 % 100 % 1016,1 hPa 0,0 l/m 2,0 km/h (1 Bft) 2 min 0 min 5,2 km/h (1 Bft)
12.08.2012 08:48 22,3 C 14,5 C 0,4 UV-I 7,7 C 54 % 91 % 100 % 1016,1 hPa 0,0 l/m 1,6 km/h (1 Bft) 2 min 0 min 0,0 km/h (0 Bft)
12.08.2012 08:50 22,3 C 14,5 C 0,4 UV-I 7,7 C 54 % 91 % 100 % 1016,1 hPa 0,0 l/m 1,6 km/h (1 Bft) 2 min 0 min 0,0 km/h (0 Bft)
12.08.2012 08:52 22,2 C 14,9 C 0,5 UV-I 8,5 C 54 % 91 % 100 % 1016,1 hPa 0,0 l/m 1,6 km/h (1 Bft) 2 min 0 min 4,4 km/h (1 Bft)
12.08.2012 08:54 22,4 C 14,9 C 0,7 UV-I 8,9 C 53 % 90 % 100 % 1016,1 hPa 0,0 l/m 1,6 km/h (1 Bft) 2 min 0 min 6,8 km/h (2 Bft)
12.08.2012 08:56 22,4 C 15,3 C 0,7 UV-I 8,8 C 53 % 90 % 100 % 1016,1 hPa 0,0 l/m 2,8 km/h (1 Bft) 2 min 0 min 12,0 km/h (2 Bft)
12.08.2012 08:58 22,4 C 15,3 C 0,7 UV-I 8,8 C 53 % 89 % 100 % 1016,1 hPa 0,0 l/m 3,6 km/h (1 Bft) 2 min 0 min 12,0 km/h (2 Bft)
12.08.2012 09:00 22,4 C 15,6 C 0,9 UV-I 8,6 C 53 % 89 % 100 % 1016,1 hPa 0,0 l/m 4,4 km/h (1 Bft) 2 min 0 min 7,2 km/h (2 Bft)
12.08.2012 09:02 22,4 C 15,8 C 0,9 UV-I 8,6 C 53 % 87 % 100 % 1016,1 hPa 0,0 l/m 4,8 km/h (1 Bft) 2 min 0 min 12,0 km/h (2 Bft)
12.08.2012 09:04 22,4 C 16,1 C 1,1 UV-I 8,3 C 53 % 87 % 100 % 1016,1 hPa 0,0 l/m 5,2 km/h (1 Bft) 2 min 0 min 6,4 km/h (2 Bft)
12.08.2012 09:06 22,4 C 16,2 C 1,1 UV-I 8,4 C 53 % 86 % 100 % 1016,1 hPa 0,0 l/m 5,2 km/h (1 Bft) 2 min 0 min 6,4 km/h (2 Bft)
12.08.2012 09:08 22,4 C 16,3 C 1,1 UV-I 8,4 C 53 % 85 % 100 % 1016,1 hPa 0,0 l/m 4,8 km/h (1 Bft) 2 min 0 min 12,4 km/h (3 Bft)
12.08.2012 09:10 22,4 C 16,3 C 1,1 UV-I 8,4 C 53 % 85 % 100 % 1016,1 hPa 0,0 l/m 4,8 km/h (1 Bft) 2 min 0 min 12,4 km/h (3 Bft)
12.08.2012 09:12 22,4 C 16,8 C 1,3 UV-I 8,2 C 53 % 81 % 100 % 1016,1 hPa 0,0 l/m 5,2 km/h (1 Bft) 2 min 0 min 12,4 km/h (3 Bft)
12.08.2012 09:14 22,4 C 16,8 C 1,4 UV-I 8,2 C 53 % 81 % 100 % 1016,1 hPa 0,0 l/m 4,8 km/h (1 Bft) 2 min 0 min 8,4 km/h (2 Bft)
12.08.2012 09:16 22,4 C 17,1 C 1,4 UV-I 8,2 C 53 % 82 % 100 % 1016,1 hPa 0,0 l/m 4,4 km/h (1 Bft) 2 min 0 min 7,2 km/h (2 Bft)
12.08.2012 09:18 22,5 C 17,2 C 1,4 UV-I 8,4 C 53 % 82 % 100 % 1016,1 hPa 0,0 l/m 4,0 km/h (1 Bft) 2 min 0 min 9,2 km/h (2 Bft)
12.08.2012 09:20 22,5 C 17,3 C 1,5 UV-I 8,5 C 53 % 80 % 100 % 1016,1 hPa 0,0 l/m 4,0 km/h (1 Bft) 2 min 0 min 9,2 km/h (2 Bft)
12.08.2012 09:22 22,5 C 17,5 C 1,5 UV-I 8,5 C 53 % 79 % 100 % 1016,1 hPa 0,0 l/m 3,6 km/h (1 Bft) 2 min 0 min 8,4 km/h (2 Bft)
12.08.2012 09:24 22,5 C 17,7 C 1,5 UV-I 8,4 C 53 % 78 % 100 % 1016,1 hPa 0,0 l/m 3,6 km/h (1 Bft) 2 min 0 min 9,6 km/h (2 Bft)
12.08.2012 09:26 22,5 C 17,7 C 1,5 UV-I 8,3 C 53 % 77 % 100 % 1016,1 hPa 0,0 l/m 4,4 km/h (1 Bft) 2 min 0 min 9,6 km/h (2 Bft)
12.08.2012 09:28 22,5 C 17,9 C 1,5 UV-I 8,1 C 53 % 77 % 100 % 1016,1 hPa 0,0 l/m 4,4 km/h (1 Bft) 2 min 0 min 6,0 km/h (2 Bft)
12.08.2012 09:30 22,5 C 17,9 C 1,5 UV-I 8,1 C 53 % 77 % 100 % 1016,2 hPa 0,0 l/m 4,4 km/h (1 Bft) 2 min 0 min 6,0 km/h (2 Bft)
12.08.2012 09:32 22,6 C 18,1 C 1,8 UV-I 7,9 C 53 % 76 % 100 % 1016,2 hPa 0,0 l/m 4,8 km/h (1 Bft) 2 min 0 min 12,8 km/h (3 Bft)
12.08.2012 09:34 22,6 C 18,3 C 1,9 UV-I 7,9 C 53 % 75 % 100 % 1016,2 hPa 0,0 l/m 5,2 km/h (1 Bft) 2 min 0 min 6,8 km/h (2 Bft)
12.08.2012 09:36 22,6 C 18,3 C 1,9 UV-I 8,0 C 53 % 75 % 100 % 1016,2 hPa 0,0 l/m 4,8 km/h (1 Bft) 2 min 0 min 12,4 km/h (3 Bft)
12.08.2012 09:38 22,6 C 18,4 C 1,9 UV-I 7,9 C 53 % 73 % 100 % 1016,2 hPa 0,0 l/m 6,4 km/h (2 Bft) 2 min 0 min 12,4 km/h (3 Bft)
12.08.2012 09:40 22,6 C 18,7 C 2,1 UV-I 7,5 C 53 % 72 % 100 % 1016,2 hPa 0,0 l/m 6,8 km/h (2 Bft) 2 min 0 min 12,0 km/h (2 Bft)
12.08.2012 09:42 22,6 C 18,7 C 2,1 UV-I 7,5 C 53 % 71 % 100 % 1016,2 hPa 0,0 l/m 7,2 km/h (2 Bft) 2 min 0 min 20,5 km/h (4 Bft)
12.08.2012 09:44 22,6 C 18,9 C 2,3 UV-I 7,3 C 53 % 72 % 100 % 1016,2 hPa 0,0 l/m 7,2 km/h (2 Bft) 2 min 0 min 8,0 km/h (2 Bft)
12.08.2012 09:46 22,6 C 19,0 C 2,3 UV-I 7,3 C 53 % 71 % 100 % 1016,2 hPa 0,0 l/m 7,2 km/h (2 Bft) 2 min 0 min 7,2 km/h (2 Bft)
12.08.2012 09:48 22,6 C 19,1 C 2,3 UV-I 7,2 C 53 % 71 % 100 % 1016,2 hPa 0,0 l/m 7,2 km/h (2 Bft) 2 min 0 min 7,2 km/h (2 Bft)
12.08.2012 09:50 22,6 C 19,1 C 2,3 UV-I 7,2 C 53 % 71 % 100 % 1016,1 hPa 0,0 l/m 7,2 km/h (2 Bft) 2 min 0 min 7,2 km/h (2 Bft)
12.08.2012 09:52 22,6 C 19,3 C 2,5 UV-I 7,4 C 53 % 68 % 100 % 1016,1 hPa 0,0 l/m 5,6 km/h (1 Bft) 2 min 0 min 8,0 km/h (2 Bft)
12.08.2012 09:54 22,6 C 19,3 C 2,7 UV-I 7,5 C 53 % 68 % 100 % 1016,1 hPa 0,0 l/m 5,6 km/h (1 Bft) 2 min 0 min 8,0 km/h (2 Bft)
12.08.2012 09:56 22,7 C 19,5 C 2,7 UV-I 7,3 C 53 % 67 % 100 % 1016,1 hPa 0,0 l/m 5,2 km/h (1 Bft) 2 min 0 min 6,8 km/h (2 Bft)
12.08.2012 09:58 22,7 C 19,6 C 2,7 UV-I 7,3 C 53 % 67 % 100 % 1016,1 hPa 0,0 l/m 5,6 km/h (1 Bft) 2 min 0 min 10,8 km/h (2 Bft)
12.08.2012 10:00 22,7 C 19,6 C 2,9 UV-I 7,3 C 53 % 67 % 100 % 1016,1 hPa 0,0 l/m 6,0 km/h (2 Bft) 2 min 0 min 13,7 km/h (3 Bft)
12.08.2012 10:02 22,7 C 19,7 C 2,9 UV-I 7,2 C 53 % 66 % 100 % 1016,1 hPa 0,0 l/m 6,4 km/h (2 Bft) 2 min 0 min 13,7 km/h (3 Bft)
12.08.2012 10:04 22,7 C 19,8 C 3,1 UV-I 7,2 C 53 % 66 % 100 % 1016,1 hPa 0,0 l/m 6,4 km/h (2 Bft) 2 min 0 min 9,6 km/h (2 Bft)
12.08.2012 10:06 22,8 C 19,8 C 3,1 UV-I 7,2 C 53 % 67 % 100 % 1016,1 hPa 0,0 l/m 6,0 km/h (2 Bft) 2 min 0 min 4,4 km/h (1 Bft)
12.08.2012 10:08 22,8 C 20,0 C 3,1 UV-I 7,4 C 53 % 67 % 100 % 1016,1 hPa 0,0 l/m 6,0 km/h (2 Bft) 2 min 0 min 6,8 km/h (2 Bft)
12.08.2012 10:10 22,8 C 20,0 C 3,1 UV-I 7,4 C 53 % 67 % 100 % 1016,1 hPa 0,0 l/m 6,0 km/h (2 Bft) 2 min 0 min 6,8 km/h (2 Bft)
12.08.2012 10:12 22,8 C 20,1 C 3,4 UV-I 7,6 C 53 % 66 % 100 % 1016,1 hPa 0,0 l/m 5,6 km/h (1 Bft) 2 min 0 min 8,4 km/h (2 Bft)
12.08.2012 10:14 22,8 C 20,4 C 3,4 UV-I 7,4 C 53 % 64 % 100 % 1016,1 hPa 0,0 l/m 5,6 km/h (1 Bft) 2 min 0 min 8,4 km/h (2 Bft)
12.08.2012 10:16 22,8 C 20,4 C 3,4 UV-I 7,4 C 53 % 63 % 100 % 1016,1 hPa 0,0 l/m 6,0 km/h (2 Bft) 2 min 0 min 8,4 km/h (2 Bft)
12.08.2012 10:18 22,8 C 20,4 C 3,4 UV-I 7,4 C 53 % 64 % 100 % 1016,1 hPa 0,0 l/m 5,6 km/h (1 Bft) 2 min 0 min 8,4 km/h (2 Bft)
12.08.2012 10:20 22,8 C 20,4 C 4,0 UV-I 7,5 C 53 % 64 % 100 % 1016,1 hPa 0,0 l/m 6,0 km/h (2 Bft) 2 min 0 min 9,6 km/h (2 Bft)
12.08.2012 10:22 22,9 C 20,7 C 4,0 UV-I 7,4 C 53 % 62 % 100 % 1016,1 hPa 0,0 l/m 6,0 km/h (2 Bft) 2 min 0 min 9,6 km/h (2 Bft)
12.08.2012 10:24 22,9 C 20,7 C 4,3 UV-I 7,4 C 53 % 62 % 100 % 1016,1 hPa 0,0 l/m 6,4 km/h (2 Bft) 2 min 0 min 11,2 km/h (2 Bft)
12.08.2012 10:26 22,9 C 20,8 C 4,3 UV-I 7,2 C 52 % 61 % 100 % 1016,1 hPa 0,0 l/m 7,2 km/h (2 Bft) 2 min 0 min 18,1 km/h (3 Bft)
12.08.2012 10:28 22,9 C 20,9 C 4,3 UV-I 6,8 C 53 % 61 % 100 % 1016,1 hPa 0,0 l/m 8,4 km/h (2 Bft) 2 min 0 min 18,1 km/h (3 Bft)
12.08.2012 10:30 22,9 C 20,9 C 4,3 UV-I 6,8 C 53 % 61 % 100 % 1015,9 hPa 0,0 l/m 8,4 km/h (2 Bft) 2 min 0 min 13,3 km/h (3 Bft)
12.08.2012 10:32 23,0 C 20,9 C 4,6 UV-I 6,7 C 52 % 60 % 100 % 1015,9 hPa 0,0 l/m 10,0 km/h (2 Bft) 2 min 0 min 13,3 km/h (3 Bft)
12.08.2012 10:34 23,0 C 21,1 C 4,9 UV-I 6,5 C 52 % 61 % 100 % 1015,9 hPa 0,0 l/m 10,0 km/h (2 Bft) 2 min 0 min 13,3 km/h (3 Bft)
12.08.2012 10:36 23,0 C 21,2 C 4,9 UV-I 6,4 C 52 % 61 % 100 % 1015,9 hPa 0,0 l/m 9,6 km/h (2 Bft) 2 min 0 min 17,7 km/h (3 Bft)
12.08.2012 10:38 23,0 C 21,2 C 4,9 UV-I 6,5 C 52 % 60 % 100 % 1015,9 hPa 0,0 l/m 10,0 km/h (2 Bft) 2 min 0 min 22,1 km/h (4 Bft)
12.08.2012 10:40 23,0 C 21,2 C 5,0 UV-I 6,3 C 52 % 59 % 100 % 1015,9 hPa 0,0 l/m 10,0 km/h (2 Bft) 2 min 0 min 22,1 km/h (4 Bft)
12.08.2012 10:42 23,0 C 21,2 C 5,0 UV-I 6,4 C 52 % 59 % 100 % 1015,9 hPa 0,0 l/m 9,6 km/h (2 Bft) 2 min 0 min 22,1 km/h (4 Bft)
12.08.2012 10:44 23,0 C 21,3 C 5,0 UV-I 6,3 C 52 % 58 % 100 % 1015,9 hPa 0,0 l/m 9,6 km/h (2 Bft) 2 min 0 min 16,9 km/h (3 Bft)
12.08.2012 10:46 23,1 C 21,4 C 5,0 UV-I 6,2 C 52 % 58 % 100 % 1015,9 hPa 0,0 l/m 10,0 km/h (2 Bft) 2 min 0 min 19,3 km/h (3 Bft)
12.08.2012 10:48 23,1 C 21,4 C 5,0 UV-I 6,2 C 52 % 58 % 100 % 1015,9 hPa 0,0 l/m 9,6 km/h (2 Bft) 2 min 0 min 19,3 km/h (3 Bft)
12.08.2012 10:50 23,1 C 21,4 C 5,0 UV-I 6,2 C 52 % 58 % 100 % 1015,6 hPa 0,0 l/m 9,6 km/h (2 Bft) 2 min 0 min 16,1 km/h (3 Bft)
12.08.2012 10:52 23,1 C 21,6 C 5,0 UV-I 6,0 C 52 % 57 % 100 % 1015,6 hPa 0,0 l/m 9,6 km/h (2 Bft) 2 min 0 min 16,1 km/h (3 Bft)
12.08.2012 10:54 23,1 C 21,6 C 5,3 UV-I 6,0 C 52 % 57 % 100 % 1015,6 hPa 0,0 l/m 9,2 km/h (2 Bft) 2 min 0 min 16,5 km/h (3 Bft)
12.08.2012 10:56 23,1 C 21,7 C 5,3 UV-I 6,0 C 52 % 56 % 100 % 1015,6 hPa 0,0 l/m 9,6 km/h (2 Bft) 2 min 0 min 16,5 km/h (3 Bft)
12.08.2012 10:58 23,2 C 21,6 C 5,3 UV-I 6,1 C 52 % 57 % 100 % 1015,6 hPa 0,0 l/m 9,6 km/h (2 Bft) 2 min 0 min 9,6 km/h (2 Bft)
12.08.2012 11:00 23,2 C 21,7 C 5,1 UV-I 6,0 C 52 % 57 % 100 % 1015,6 hPa 0,0 l/m 9,6 km/h (2 Bft) 2 min 0 min 9,6 km/h (2 Bft)
12.08.2012 11:02 23,2 C 21,9 C 5,1 UV-I 6,0 C 52 % 56 % 100 % 1015,6 hPa 0,0 l/m 9,2 km/h (2 Bft) 2 min 0 min 23,3 km/h (4 Bft)
12.08.2012 11:04 23,2 C 21,9 C 5,1 UV-I 6,2 C 52 % 55 % 100 % 1015,6 hPa 0,0 l/m 9,6 km/h (2 Bft) 2 min 0 min 28,1 km/h (4 Bft)
12.08.2012 11:06 23,2 C 21,9 C 5,1 UV-I 6,1 C 52 % 55 % 100 % 1015,6 hPa 0,0 l/m 9,2 km/h (2 Bft) 2 min 0 min 4,0 km/h (1 Bft)
12.08.2012 11:08 23,2 C 22,0 C 5,1 UV-I 6,1 C 52 % 54 % 100 % 1015,6 hPa 0,0 l/m 9,2 km/h (2 Bft) 2 min 0 min 6,4 km/h (2 Bft)
12.08.2012 11:10 23,2 C 22,0 C 5,1 UV-I 6,1 C 52 % 54 % 100 % 1015,7 hPa 0,0 l/m 9,2 km/h (2 Bft) 2 min 0 min 6,4 km/h (2 Bft)
12.08.2012 11:12 23,2 C 22,0 C 5,1 UV-I 5,9 C 52 % 53 % 100 % 1015,7 hPa 0,0 l/m 10,8 km/h (2 Bft) 2 min 0 min 28,1 km/h (4 Bft)
12.08.2012 11:14 23,2 C 22,0 C 5,2 UV-I 5,9 C 52 % 53 % 100 % 1015,7 hPa 0,0 l/m 10,8 km/h (2 Bft) 2 min 0 min 17,7 km/h (3 Bft)
12.08.2012 11:16 23,3 C 22,1 C 5,2 UV-I 5,8 C 52 % 53 % 100 % 1015,7 hPa 0,0 l/m 9,6 km/h (2 Bft) 2 min 0 min 15,7 km/h (3 Bft)
12.08.2012 11:18 23,3 C 22,3 C 5,2 UV-I 5,7 C 51 % 52 % 100 % 1015,7 hPa 0,0 l/m 10,8 km/h (2 Bft) 2 min 0 min 24,1 km/h (4 Bft)
12.08.2012 11:20 23,3 C 22,3 C 5,2 UV-I 5,6 C 51 % 53 % 100 % 1015,7 hPa 0,0 l/m 11,2 km/h (2 Bft) 2 min 0 min 24,1 km/h (4 Bft)
12.08.2012 11:22 23,3 C 22,3 C 5,2 UV-I 5,6 C 51 % 52 % 100 % 1015,7 hPa 0,0 l/m 10,0 km/h (2 Bft) 2 min 0 min 13,7 km/h (3 Bft)
12.08.2012 11:24 23,2 C 22,4 C 4,9 UV-I 5,7 C 51 % 52 % 100 % 1015,7 hPa 0,0 l/m 10,4 km/h (2 Bft) 2 min 0 min 13,7 km/h (3 Bft)
12.08.2012 11:26 23,2 C 22,5 C 4,9 UV-I 5,5 C 51 % 51 % 100 % 1015,7 hPa 0,0 l/m 10,8 km/h (2 Bft) 2 min 0 min 13,7 km/h (3 Bft)
12.08.2012 11:28 23,2 C 22,4 C 4,9 UV-I 5,5 C 51 % 52 % 100 % 1015,7 hPa 0,0 l/m 10,8 km/h (2 Bft) 2 min 0 min 11,6 km/h (2 Bft)
12.08.2012 11:30 23,2 C 22,4 C 4,9 UV-I 5,5 C 51 % 52 % 100 % 1015,5 hPa 0,0 l/m 10,8 km/h (2 Bft) 2 min 0 min 10,4 km/h (2 Bft)
12.08.2012 11:32 23,4 C 22,6 C 4,8 UV-I 5,6 C 51 % 51 % 100 % 1015,5 hPa 0,0 l/m 10,0 km/h (2 Bft) 2 min 0 min 13,3 km/h (3 Bft)
12.08.2012 11:34 23,4 C 22,6 C 4,8 UV-I 5,7 C 51 % 52 % 100 % 1015,5 hPa 0,0 l/m 9,6 km/h (2 Bft) 2 min 0 min 13,3 km/h (3 Bft)
12.08.2012 11:36 23,4 C 22,7 C 4,8 UV-I 5,9 C 51 % 52 % 100 % 1015,5 hPa 0,0 l/m 7,6 km/h (2 Bft) 2 min 0 min 16,1 km/h (3 Bft)
12.08.2012 11:38 23,4 C 22,8 C 4,8 UV-I 6,0 C 51 % 51 % 100 % 1015,5 hPa 0,0 l/m 7,6 km/h (2 Bft) 2 min 0 min 16,1 km/h (3 Bft)
12.08.2012 11:40 23,4 C 22,9 C 4,4 UV-I 6,1 C 51 % 51 % 100 % 1015,5 hPa 0,0 l/m 8,0 km/h (2 Bft) 2 min 0 min 10,8 km/h (2 Bft)
12.08.2012 11:42 23,4 C 23,0 C 4,4 UV-I 6,0 C 51 % 51 % 100 % 1015,5 hPa 0,0 l/m 7,6 km/h (2 Bft) 2 min 0 min 15,7 km/h (3 Bft)
12.08.2012 11:44 23,4 C 23,1 C 4,2 UV-I 6,0 C 51 % 51 % 100 % 1015,5 hPa 0,0 l/m 7,2 km/h (2 Bft) 2 min 0 min 15,7 km/h (3 Bft)
12.08.2012 11:46 23,4 C 23,2 C 4,2 UV-I 6,0 C 51 % 51 % 100 % 1015,5 hPa 0,0 l/m 7,2 km/h (2 Bft) 2 min 0 min 8,4 km/h (2 Bft)
12.08.2012 11:48 23,4 C 23,2 C 4,2 UV-I 6,1 C 51 % 51 % 100 % 1015,5 hPa 0,0 l/m 6,8 km/h (2 Bft) 2 min 0 min 4,4 km/h (1 Bft)
12.08.2012 11:50 23,4 C 23,2 C 4,2 UV-I 6,1 C 51 % 51 % 100 % 1015,4 hPa 0,0 l/m 6,8 km/h (2 Bft) 2 min 0 min 4,4 km/h (1 Bft)
12.08.2012 11:52 23,5 C 23,5 C 4,3 UV-I 6,1 C 51 % 48 % 100 % 1015,4 hPa 0,0 l/m 7,2 km/h (2 Bft) 2 min 0 min 12,0 km/h (2 Bft)
12.08.2012 11:54 23,5 C 23,4 C 4,3 UV-I 6,2 C 51 % 48 % 100 % 1015,4 hPa 0,0 l/m 7,6 km/h (2 Bft) 2 min 0 min 12,0 km/h (2 Bft)
12.08.2012 11:56 23,5 C 23,5 C 4,3 UV-I 5,9 C 51 % 48 % 100 % 1015,4 hPa 0,0 l/m 8,4 km/h (2 Bft) 2 min 0 min 11,6 km/h (2 Bft)
12.08.2012 11:58 23,6 C 23,5 C 4,3 UV-I 5,8 C 51 % 47 % 100 % 1015,4 hPa 0,0 l/m 10,4 km/h (2 Bft) 2 min 0 min 20,5 km/h (4 Bft)
12.08.2012 12:00 23,6 C 23,3 C 4,3 UV-I 5,8 C 51 % 47 % 100 % 1015,4 hPa 0,0 l/m 10,8 km/h (2 Bft) 2 min 0 min 22,1 km/h (4 Bft)
12.08.2012 12:02 23,6 C 23,3 C 4,3 UV-I 5,6 C 51 % 46 % 100 % 1015,4 hPa 0,0 l/m 11,2 km/h (2 Bft) 2 min 0 min 22,1 km/h (4 Bft)
12.08.2012 12:04 23,6 C 23,3 C 4,3 UV-I 5,5 C 51 % 46 % 100 % 1015,4 hPa 0,0 l/m 11,6 km/h (2 Bft) 2 min 0 min 20,1 km/h (4 Bft)
12.08.2012 12:06 23,6 C 23,3 C 4,3 UV-I 5,4 C 51 % 47 % 100 % 1015,4 hPa 0,0 l/m 11,6 km/h (2 Bft) 2 min 0 min 14,5 km/h (3 Bft)
12.08.2012 12:08 23,6 C 23,3 C 4,3 UV-I 5,3 C 51 % 48 % 100 % 1015,4 hPa 0,0 l/m 10,8 km/h (2 Bft) 2 min 0 min 14,5 km/h (3 Bft)
12.08.2012 12:10 23,6 C 23,3 C 4,3 UV-I 5,3 C 51 % 48 % 100 % 1015,2 hPa 0,0 l/m 10,8 km/h (2 Bft) 2 min 0 min 4,0 km/h (1 Bft)
12.08.2012 12:12 23,6 C 23,3 C 4,4 UV-I 5,3 C 51 % 48 % 100 % 1015,2 hPa 0,0 l/m 10,4 km/h (2 Bft) 2 min 0 min 7,6 km/h (2 Bft)
12.08.2012 12:14 23,6 C 23,4 C 4,4 UV-I 5,2 C 51 % 48 % 100 % 1015,2 hPa 0,0 l/m 10,0 km/h (2 Bft) 2 min 0 min 13,3 km/h (3 Bft)
12.08.2012 12:16 23,7 C 23,4 C 4,4 UV-I 5,2 C 51 % 47 % 100 % 1015,2 hPa 0,0 l/m 10,8 km/h (2 Bft) 2 min 0 min 42,2 km/h (6 Bft)
12.08.2012 12:18 23,7 C 23,4 C 4,4 UV-I 5,3 C 51 % 46 % 100 % 1015,2 hPa 0,0 l/m 10,8 km/h (2 Bft) 2 min 0 min 42,2 km/h (6 Bft)
12.08.2012 12:20 23,7 C 23,4 C 4,2 UV-I 5,3 C 51 % 47 % 100 % 1015,2 hPa 0,0 l/m 10,8 km/h (2 Bft) 2 min 0 min 24,5 km/h (4 Bft)
12.08.2012 12:22 23,7 C 23,6 C 4,2 UV-I 5,2 C 51 % 46 % 100 % 1015,2 hPa 0,0 l/m 10,8 km/h (2 Bft) 2 min 0 min 42,2 km/h (6 Bft)
12.08.2012 12:24 23,7 C 23,5 C 4,1 UV-I 5,2 C 51 % 47 % 100 % 1015,2 hPa 0,0 l/m 11,2 km/h (2 Bft) 2 min 0 min 16,9 km/h (3 Bft)
12.08.2012 12:26 23,8 C 23,7 C 4,1 UV-I 5,0 C 51 % 48 % 100 % 1015,2 hPa 0,0 l/m 12,0 km/h (2 Bft) 2 min 0 min 20,1 km/h (4 Bft)
12.08.2012 12:28 23,8 C 23,6 C 4,1 UV-I 5,1 C 51 % 47 % 100 % 1015,2 hPa 0,0 l/m 11,6 km/h (2 Bft) 2 min 0 min 20,1 km/h (4 Bft)
12.08.2012 12:30 23,8 C 23,6 C 4,1 UV-I 5,1 C 51 % 47 % 100 % 1014,9 hPa 0,0 l/m 11,6 km/h (2 Bft) 2 min 0 min 9,6 km/h (2 Bft)
12.08.2012 12:32 23,8 C 23,7 C 4,0 UV-I 5,0 C 50 % 47 % 100 % 1014,9 hPa 0,0 l/m 10,8 km/h (2 Bft) 2 min 0 min 14,1 km/h (3 Bft)
12.08.2012 12:34 23,8 C 23,8 C 3,8 UV-I 5,1 C 50 % 48 % 100 % 1014,9 hPa 0,0 l/m 9,6 km/h (2 Bft) 2 min 0 min 14,1 km/h (3 Bft)
12.08.2012 12:36 23,8 C 23,8 C 3,8 UV-I 5,3 C 50 % 48 % 100 % 1014,9 hPa 0,0 l/m 9,2 km/h (2 Bft) 2 min 0 min 12,0 km/h (2 Bft)
12.08.2012 12:38 23,9 C 24,0 C 3,8 UV-I 5,2 C 50 % 48 % 100 % 1014,9 hPa 0,0 l/m 8,4 km/h (2 Bft) 2 min 0 min 12,0 km/h (2 Bft)
12.08.2012 12:40 23,9 C 24,1 C 3,7 UV-I 5,3 C 50 % 48 % 100 % 1014,9 hPa 0,0 l/m 7,6 km/h (2 Bft) 2 min 0 min 11,2 km/h (2 Bft)
12.08.2012 12:42 23,9 C 24,3 C 3,7 UV-I 5,3 C 50 % 47 % 100 % 1014,9 hPa 0,0 l/m 8,4 km/h (2 Bft) 2 min 0 min 16,9 km/h (3 Bft)
12.08.2012 12:44 23,9 C 24,2 C 2,9 UV-I 5,4 C 50 % 46 % 100 % 1014,9 hPa 0,0 l/m 8,0 km/h (2 Bft) 2 min 0 min 16,9 km/h (3 Bft)
12.08.2012 12:46 23,9 C 24,3 C 2,9 UV-I 5,4 C 50 % 46 % 100 % 1014,9 hPa 0,0 l/m 8,4 km/h (2 Bft) 2 min 0 min 10,8 km/h (2 Bft)
12.08.2012 12:48 23,9 C 24,3 C 2,9 UV-I 5,4 C 50 % 46 % 100 % 1014,9 hPa 0,0 l/m 8,4 km/h (2 Bft) 2 min 0 min 13,7 km/h (3 Bft)
12.08.2012 12:50 23,9 C 24,3 C 2,9 UV-I 5,4 C 50 % 46 % 100 % 1015,2 hPa 0,0 l/m 8,4 km/h (2 Bft) 2 min 0 min 13,7 km/h (3 Bft)
12.08.2012 12:52 24,0 C 24,4 C 1,6 UV-I 5,7 C 50 % 47 % 100 % 1015,2 hPa 0,0 l/m 7,2 km/h (2 Bft) 2 min 0 min 13,7 km/h (3 Bft)
12.08.2012 12:54 24,0 C 24,6 C 2,1 UV-I 5,7 C 50 % 47 % 100 % 1015,2 hPa 0,0 l/m 6,8 km/h (2 Bft) 2 min 0 min 8,0 km/h (2 Bft)
12.08.2012 12:56 24,0 C 24,6 C 2,1 UV-I 5,9 C 50 % 46 % 100 % 1015,2 hPa 0,0 l/m 6,8 km/h (2 Bft) 2 min 0 min 8,0 km/h (2 Bft)
12.08.2012 12:58 24,0 C 24,6 C 2,1 UV-I 5,9 C 50 % 46 % 100 % 1015,2 hPa 0,0 l/m 7,6 km/h (2 Bft) 2 min 0 min 17,3 km/h (3 Bft)
12.08.2012 13:00 24,0 C 24,7 C 2,9 UV-I 5,6 C 50 % 46 % 100 % 1015,2 hPa 0,0 l/m 8,0 km/h (2 Bft) 2 min 0 min 17,3 km/h (3 Bft)
12.08.2012 13:02 24,0 C 24,7 C 2,9 UV-I 5,4 C 50 % 46 % 100 % 1015,2 hPa 0,0 l/m 9,2 km/h (2 Bft) 2 min 0 min 10,0 km/h (2 Bft)
12.08.2012 13:04 24,1 C 24,7 C 3,0 UV-I 5,2 C 50 % 45 % 100 % 1015,2 hPa 0,0 l/m 11,2 km/h (2 Bft) 2 min 0 min 12,4 km/h (3 Bft)
12.08.2012 13:06 24,1 C 24,7 C 3,0 UV-I 4,9 C 50 % 45 % 100 % 1015,2 hPa 0,0 l/m 11,6 km/h (2 Bft) 2 min 0 min 20,9 km/h (4 Bft)
12.08.2012 13:08 24,1 C 24,5 C 3,0 UV-I 4,9 C 50 % 46 % 100 % 1015,2 hPa 0,0 l/m 11,6 km/h (2 Bft) 2 min 0 min 20,9 km/h (4 Bft)
12.08.2012 13:10 24,1 C 24,5 C 3,0 UV-I 4,9 C 50 % 46 % 100 % 1015,0 hPa 0,0 l/m 11,6 km/h (2 Bft) 2 min 0 min 8,4 km/h (2 Bft)
12.08.2012 13:12 24,2 C 24,7 C 2,9 UV-I 4,8 C 50 % 46 % 100 % 1015,0 hPa 0,0 l/m 11,6 km/h (2 Bft) 2 min 0 min 9,6 km/h (2 Bft)
12.08.2012 13:14 24,2 C 24,7 C 2,9 UV-I 4,7 C 50 % 45 % 100 % 1015,0 hPa 0,0 l/m 12,4 km/h (3 Bft) 2 min 0 min 20,5 km/h (4 Bft)
12.08.2012 13:16 24,2 C 24,6 C 2,9 UV-I 4,8 C 49 % 45 % 100 % 1015,0 hPa 0,0 l/m 11,6 km/h (2 Bft) 2 min 0 min 20,5 km/h (4 Bft)
12.08.2012 13:18 24,2 C 24,7 C 2,9 UV-I 4,7 C 49 % 45 % 100 % 1015,0 hPa 0,0 l/m 11,2 km/h (2 Bft) 2 min 0 min 16,9 km/h (3 Bft)
12.08.2012 13:20 24,2 C 24,7 C 2,9 UV-I 4,6 C 49 % 46 % 100 % 1015,0 hPa 0,0 l/m 11,2 km/h (2 Bft) 2 min 0 min 11,6 km/h (2 Bft)
12.08.2012 13:22 24,3 C 24,7 C 2,9 UV-I 4,8 C 49 % 45 % 100 % 1015,0 hPa 0,0 l/m 11,6 km/h (2 Bft) 2 min 0 min 12,8 km/h (3 Bft)
12.08.2012 13:24 24,3 C 24,7 C 2,9 UV-I 4,8 C 49 % 45 % 100 % 1015,0 hPa 0,0 l/m 10,8 km/h (2 Bft) 2 min 0 min 12,8 km/h (3 Bft)
12.08.2012 13:26 24,2 C 24,8 C 2,9 UV-I 4,7 C 49 % 45 % 100 % 1015,0 hPa 0,0 l/m 10,8 km/h (2 Bft) 2 min 0 min 17,7 km/h (3 Bft)
12.08.2012 13:28 24,4 C 24,8 C 2,9 UV-I 4,7 C 49 % 44 % 100 % 1015,0 hPa 0,0 l/m 10,0 km/h (2 Bft) 2 min 0 min 17,7 km/h (3 Bft)
12.08.2012 13:30 24,4 C 24,8 C 2,9 UV-I 4,7 C 49 % 44 % 100 % 1014,6 hPa 0,0 l/m 10,0 km/h (2 Bft) 2 min 0 min 10,4 km/h (2 Bft)
12.08.2012 13:32 24,4 C 24,8 C 2,8 UV-I 4,6 C 49 % 45 % 100 % 1014,6 hPa 0,0 l/m 10,0 km/h (2 Bft) 2 min 0 min 10,4 km/h (2 Bft)
12.08.2012 13:34 24,4 C 24,8 C 2,7 UV-I 4,6 C 49 % 44 % 100 % 1014,6 hPa 0,0 l/m 10,4 km/h (2 Bft) 2 min 0 min 22,1 km/h (4 Bft)
12.08.2012 13:36 24,4 C 24,7 C 2,7 UV-I 4,6 C 49 % 45 % 100 % 1014,6 hPa 0,0 l/m 10,8 km/h (2 Bft) 2 min 0 min 22,1 km/h (4 Bft)
12.08.2012 13:38 24,4 C 24,7 C 2,7 UV-I 4,5 C 49 % 45 % 100 % 1014,6 hPa 0,0 l/m 10,8 km/h (2 Bft) 2 min 0 min 15,7 km/h (3 Bft)
12.08.2012 13:40 24,5 C 24,8 C 2,7 UV-I 4,4 C 49 % 46 % 100 % 1014,6 hPa 0,0 l/m 10,4 km/h (2 Bft) 2 min 0 min 13,7 km/h (3 Bft)
12.08.2012 13:42 24,5 C 24,9 C 2,7 UV-I 4,4 C 49 % 46 % 100 % 1014,6 hPa 0,0 l/m 11,6 km/h (2 Bft) 2 min 0 min 27,3 km/h (4 Bft)
12.08.2012 13:44 24,6 C 24,9 C 2,7 UV-I 4,4 C 49 % 45 % 100 % 1014,6 hPa 0,0 l/m 11,2 km/h (2 Bft) 2 min 0 min 27,3 km/h (4 Bft)
12.08.2012 13:46 24,6 C 24,9 C 2,7 UV-I 4,5 C 48 % 45 % 100 % 1014,6 hPa 0,0 l/m 10,4 km/h (2 Bft) 2 min 0 min 14,5 km/h (3 Bft)
12.08.2012 13:48 24,6 C 25,0 C 2,7 UV-I 4,5 C 48 % 45 % 100 % 1014,6 hPa 0,0 l/m 10,4 km/h (2 Bft) 2 min 0 min 14,5 km/h (3 Bft)
12.08.2012 13:50 24,6 C 25,0 C 2,7 UV-I 4,5 C 48 % 45 % 100 % 1014,4 hPa 0,0 l/m 10,4 km/h (2 Bft) 2 min 0 min 11,2 km/h (2 Bft)
12.08.2012 13:52 24,7 C 25,0 C 2,8 UV-I 4,5 C 48 % 45 % 100 % 1014,4 hPa 0,0 l/m 10,8 km/h (2 Bft) 2 min 0 min 12,4 km/h (3 Bft)
12.08.2012 13:54 24,8 C 25,1 C 2,7 UV-I 4,4 C 48 % 45 % 100 % 1014,4 hPa 0,0 l/m 10,0 km/h (2 Bft) 2 min 0 min 12,4 km/h (3 Bft)
12.08.2012 13:56 24,8 C 25,1 C 2,7 UV-I 4,6 C 48 % 46 % 100 % 1014,4 hPa 0,0 l/m 9,2 km/h (2 Bft) 2 min 0 min 5,2 km/h (1 Bft)
12.08.2012 13:58 24,9 C 25,3 C 2,7 UV-I 4,6 C 48 % 45 % 100 % 1014,4 hPa 0,0 l/m 9,2 km/h (2 Bft) 2 min 0 min 7,2 km/h (2 Bft)
12.08.2012 14:00 24,9 C 25,2 C 2,7 UV-I 4,7 C 48 % 45 % 100 % 1014,4 hPa 0,0 l/m 8,4 km/h (2 Bft) 2 min 0 min 16,5 km/h (3 Bft)
12.08.2012 14:02 24,9 C 25,2 C 2,7 UV-I 4,9 C 48 % 46 % 100 % 1014,4 hPa 0,0 l/m 8,0 km/h (2 Bft) 2 min 0 min 16,5 km/h (3 Bft)
12.08.2012 14:04 25,0 C 25,3 C 2,7 UV-I 4,8 C 48 % 45 % 100 % 1014,4 hPa 0,0 l/m 8,4 km/h (2 Bft) 2 min 0 min 35,7 km/h (5 Bft)
12.08.2012 14:06 25,0 C 25,3 C 2,7 UV-I 4,8 C 48 % 44 % 100 % 1014,4 hPa 0,0 l/m 9,6 km/h (2 Bft) 2 min 0 min 16,5 km/h (3 Bft)
12.08.2012 14:08 25,1 C 25,3 C 2,7 UV-I 4,6 C 48 % 44 % 100 % 1014,4 hPa 0,0 l/m 9,6 km/h (2 Bft) 2 min 0 min 16,5 km/h (3 Bft)
12.08.2012 14:10 25,1 C 25,3 C 2,7 UV-I 4,6 C 48 % 44 % 100 % 1015,3 hPa 0,0 l/m 9,6 km/h (2 Bft) 2 min 0 min 16,1 km/h (3 Bft)
12.08.2012 14:12 25,2 C 25,2 C 2,5 UV-I 4,2 C 48 % 44 % 100 % 1015,3 hPa 0,0 l/m 11,2 km/h (2 Bft) 2 min 0 min 16,1 km/h (3 Bft)
12.08.2012 14:14 25,2 C 25,3 C 2,5 UV-I 4,0 C 48 % 45 % 100 % 1015,3 hPa 0,0 l/m 10,4 km/h (2 Bft) 2 min 0 min 8,0 km/h (2 Bft)
12.08.2012 14:16 25,2 C 25,3 C 2,5 UV-I 4,1 C 48 % 44 % 100 % 1015,3 hPa 0,0 l/m 9,6 km/h (2 Bft) 2 min 0 min 18,1 km/h (3 Bft)
12.08.2012 14:18 25,3 C 25,3 C 2,5 UV-I 4,1 C 48 % 44 % 100 % 1015,3 hPa 0,0 l/m 10,0 km/h (2 Bft) 2 min 0 min 18,1 km/h (3 Bft)
12.08.2012 14:20 25,4 C 25,2 C 2,4 UV-I 4,0 C 48 % 43 % 100 % 1015,3 hPa 0,0 l/m 9,6 km/h (2 Bft) 2 min 0 min 10,8 km/h (2 Bft)
12.08.2012 14:22 25,4 C 25,2 C 2,4 UV-I 3,9 C 47 % 43 % 100 % 1015,3 hPa 0,0 l/m 8,8 km/h (2 Bft) 2 min 0 min 11,2 km/h (2 Bft)
12.08.2012 14:24 25,4 C 25,2 C 2,4 UV-I 3,9 C 47 % 43 % 100 % 1015,3 hPa 0,0 l/m 10,0 km/h (2 Bft) 2 min 0 min 15,7 km/h (3 Bft)
12.08.2012 14:26 25,4 C 25,3 C 2,4 UV-I 3,8 C 47 % 44 % 100 % 1015,3 hPa 0,0 l/m 10,0 km/h (2 Bft) 2 min 0 min 15,7 km/h (3 Bft)
12.08.2012 14:28 25,5 C 25,3 C 2,4 UV-I 3,8 C 47 % 44 % 100 % 1015,3 hPa 0,0 l/m 9,6 km/h (2 Bft) 2 min 0 min 17,7 km/h (3 Bft)
12.08.2012 14:30 25,5 C 25,3 C 2,4 UV-I 3,8 C 47 % 44 % 100 % 1015,6 hPa 0,0 l/m 9,6 km/h (2 Bft) 2 min 0 min 17,7 km/h (3 Bft)
12.08.2012 14:32 25,6 C 25,3 C 2,4 UV-I 3,7 C 47 % 43 % 100 % 1015,6 hPa 0,0 l/m 9,6 km/h (2 Bft) 2 min 0 min 17,7 km/h (3 Bft)
12.08.2012 14:34 25,6 C 25,3 C 2,3 UV-I 3,7 C 47 % 43 % 100 % 1015,6 hPa 0,0 l/m 9,6 km/h (2 Bft) 2 min 0 min 16,1 km/h (3 Bft)
12.08.2012 14:36 25,6 C 25,3 C 2,3 UV-I 3,6 C 47 % 43 % 100 % 1015,6 hPa 0,0 l/m 9,6 km/h (2 Bft) 2 min 0 min 16,9 km/h (3 Bft)
12.08.2012 14:38 25,6 C 25,3 C 2,3 UV-I 3,4 C 47 % 43 % 97 % 1015,6 hPa 0,0 l/m 10,0 km/h (2 Bft) 2 min 0 min 16,9 km/h (3 Bft)
12.08.2012 14:40 25,7 C 25,3 C 2,3 UV-I 3,3 C 47 % 43 % 94 % 1015,6 hPa 0,0 l/m 10,8 km/h (2 Bft) 2 min 0 min 22,9 km/h (4 Bft)
12.08.2012 14:42 25,7 C 25,2 C 2,3 UV-I 3,3 C 47 % 43 % 94 % 1015,6 hPa 0,0 l/m 11,6 km/h (2 Bft) 2 min 0 min 22,9 km/h (4 Bft)
12.08.2012 14:44 25,8 C 25,2 C 2,5 UV-I 3,3 C 46 % 43 % 94 % 1015,6 hPa 0,0 l/m 11,2 km/h (2 Bft) 2 min 0 min 22,9 km/h (4 Bft)
12.08.2012 14:46 25,8 C 25,3 C 2,5 UV-I 3,4 C 46 % 43 % 97 % 1015,6 hPa 0,0 l/m 11,6 km/h (2 Bft) 2 min 0 min 22,9 km/h (4 Bft)
12.08.2012 14:48 25,9 C 25,4 C 2,5 UV-I 3,6 C 46 % 43 % 100 % 1015,6 hPa 0,0 l/m 11,2 km/h (2 Bft) 2 min 0 min 13,7 km/h (3 Bft)
12.08.2012 14:50 25,9 C 25,4 C 2,5 UV-I 3,6 C 46 % 43 % 100 % 1014,5 hPa 0,0 l/m 11,2 km/h (2 Bft) 2 min 0 min 13,7 km/h (3 Bft)
12.08.2012 14:52 26,0 C 25,5 C 2,6 UV-I 4,0 C 46 % 43 % 100 % 1014,5 hPa 0,0 l/m 8,0 km/h (2 Bft) 2 min 0 min 13,7 km/h (3 Bft)
12.08.2012 14:54 26,0 C 25,7 C 2,8 UV-I 4,2 C 46 % 42 % 100 % 1014,5 hPa 0,0 l/m 8,0 km/h (2 Bft) 2 min 0 min 19,7 km/h (3 Bft)
12.08.2012 14:56 26,1 C 25,9 C 2,8 UV-I 4,1 C 46 % 42 % 100 % 1014,5 hPa 0,0 l/m 7,6 km/h (2 Bft) 2 min 0 min 19,7 km/h (3 Bft)
12.08.2012 14:58 26,1 C 25,8 C 2,8 UV-I 4,4 C 46 % 42 % 100 % 1014,5 hPa 0,0 l/m 8,8 km/h (2 Bft) 2 min 0 min 18,5 km/h (3 Bft)
12.08.2012 15:00 26,2 C 25,8 C 3,0 UV-I 4,4 C 45 % 42 % 100 % 1014,5 hPa 0,0 l/m 8,8 km/h (2 Bft) 2 min 0 min 18,5 km/h (3 Bft)
12.08.2012 15:02 26,2 C 26,0 C 3,0 UV-I 4,4 C 45 % 42 % 100 % 1014,5 hPa 0,0 l/m 8,8 km/h (2 Bft) 2 min 0 min 11,2 km/h (2 Bft)
12.08.2012 15:04 26,3 C 26,1 C 3,1 UV-I 4,6 C 45 % 42 % 100 % 1014,5 hPa 0,0 l/m 9,2 km/h (2 Bft) 2 min 0 min 10,8 km/h (2 Bft)
12.08.2012 15:06 26,2 C 26,3 C 3,1 UV-I 4,7 C 45 % 41 % 100 % 1014,5 hPa 0,0 l/m 9,2 km/h (2 Bft) 2 min 0 min 14,1 km/h (3 Bft)
12.08.2012 15:08 26,4 C 26,3 C 3,1 UV-I 4,7 C 45 % 40 % 100 % 1014,5 hPa 0,0 l/m 9,2 km/h (2 Bft) 2 min 0 min 14,1 km/h (3 Bft)
12.08.2012 15:10 26,4 C 26,3 C 3,1 UV-I 4,7 C 45 % 40 % 100 % 1014,9 hPa 0,0 l/m 9,2 km/h (2 Bft) 2 min 0 min 10,8 km/h (2 Bft)
12.08.2012 15:12 26,5 C 26,2 C 3,3 UV-I 4,7 C 45 % 41 % 100 % 1014,9 hPa 0,0 l/m 10,0 km/h (2 Bft) 2 min 0 min 12,8 km/h (3 Bft)
12.08.2012 15:14 26,6 C 26,3 C 3,4 UV-I 4,5 C 45 % 41 % 100 % 1014,9 hPa 0,0 l/m 10,8 km/h (2 Bft) 2 min 0 min 12,8 km/h (3 Bft)
12.08.2012 15:16 26,6 C 26,3 C 3,4 UV-I 4,7 C 45 % 40 % 100 % 1014,9 hPa 0,0 l/m 11,2 km/h (2 Bft) 2 min 0 min 13,7 km/h (3 Bft)
12.08.2012 15:18 26,7 C 26,4 C 3,4 UV-I 4,6 C 45 % 41 % 100 % 1014,9 hPa 0,0 l/m 10,4 km/h (2 Bft) 2 min 0 min 13,7 km/h (3 Bft)
12.08.2012 15:20 26,8 C 26,4 C 3,5 UV-I 4,9 C 44 % 41 % 100 % 1014,9 hPa 0,0 l/m 9,2 km/h (2 Bft) 2 min 0 min 13,7 km/h (3 Bft)
12.08.2012 15:22 26,8 C 26,6 C 3,5 UV-I 4,9 C 44 % 40 % 100 % 1014,9 hPa 0,0 l/m 8,4 km/h (2 Bft) 2 min 0 min 13,7 km/h (3 Bft)
12.08.2012 15:24 26,8 C 26,6 C 3,7 UV-I 5,0 C 44 % 39 % 100 % 1014,9 hPa 0,0 l/m 8,4 km/h (2 Bft) 2 min 0 min 13,7 km/h (3 Bft)
12.08.2012 15:26 26,9 C 26,5 C 3,7 UV-I 5,0 C 44 % 39 % 100 % 1014,9 hPa 0,0 l/m 8,4 km/h (2 Bft) 2 min 0 min 13,7 km/h (3 Bft)
12.08.2012 15:28 27,0 C 26,6 C 3,7 UV-I 4,9 C 44 % 39 % 100 % 1014,9 hPa 0,0 l/m 8,0 km/h (2 Bft) 2 min 0 min 9,2 km/h (2 Bft)
12.08.2012 15:30 27,0 C 26,6 C 3,7 UV-I 4,9 C 44 % 39 % 100 % 1013,6 hPa 0,0 l/m 8,0 km/h (2 Bft) 2 min 0 min 9,2 km/h (2 Bft)
12.08.2012 15:32 27,1 C 26,4 C 3,8 UV-I 4,9 C 44 % 40 % 100 % 1013,6 hPa 0,0 l/m 9,6 km/h (2 Bft) 2 min 0 min 14,5 km/h (3 Bft)
12.08.2012 15:34 27,1 C 26,4 C 3,9 UV-I 4,7 C 44 % 40 % 100 % 1013,6 hPa 0,0 l/m 10,0 km/h (2 Bft) 2 min 0 min 14,5 km/h (3 Bft)
12.08.2012 15:36 27,2 C 26,5 C 3,9 UV-I 4,6 C 43 % 40 % 100 % 1013,6 hPa 0,0 l/m 9,2 km/h (2 Bft) 2 min 0 min 10,0 km/h (2 Bft)
12.08.2012 15:38 27,2 C 26,4 C 3,9 UV-I 4,7 C 43 % 39 % 100 % 1013,6 hPa 0,0 l/m 9,6 km/h (2 Bft) 2 min 0 min 10,0 km/h (2 Bft)
12.08.2012 15:40 27,2 C 26,5 C 4,1 UV-I 4,6 C 43 % 40 % 100 % 1013,6 hPa 0,0 l/m 9,6 km/h (2 Bft) 2 min 0 min 9,6 km/h (2 Bft)
12.08.2012 15:42 27,3 C 26,4 C 4,1 UV-I 4,7 C 43 % 39 % 100 % 1013,6 hPa 0,0 l/m 8,8 km/h (2 Bft) 2 min 0 min 13,7 km/h (3 Bft)
12.08.2012 15:44 27,2 C 26,5 C 3,6 UV-I 4,4 C 43 % 40 % 100 % 1013,6 hPa 0,0 l/m 7,6 km/h (2 Bft) 2 min 0 min 13,7 km/h (3 Bft)
12.08.2012 15:46 27,4 C 26,4 C 3,6 UV-I 4,4 C 42 % 40 % 100 % 1013,6 hPa 0,0 l/m 8,4 km/h (2 Bft) 2 min 0 min 22,9 km/h (4 Bft)
12.08.2012 15:48 27,4 C 26,4 C 3,6 UV-I 4,3 C 42 % 39 % 100 % 1013,6 hPa 0,0 l/m 7,6 km/h (2 Bft) 2 min 0 min 22,9 km/h (4 Bft)
12.08.2012 15:50 27,4 C 26,4 C 3,6 UV-I 4,3 C 42 % 39 % 100 % 1013,8 hPa 0,0 l/m 7,6 km/h (2 Bft) 2 min 0 min 5,6 km/h (1 Bft)
12.08.2012 15:52 27,4 C 26,4 C 3,3 UV-I 3,8 C 42 % 39 % 100 % 1013,8 hPa 0,0 l/m 7,6 km/h (2 Bft) 2 min 0 min 6,0 km/h (2 Bft)
12.08.2012 15:54 27,4 C 26,3 C 3,7 UV-I 3,8 C 42 % 39 % 100 % 1013,8 hPa 0,0 l/m 7,6 km/h (2 Bft) 2 min 0 min 8,4 km/h (2 Bft)
12.08.2012 15:56 27,4 C 26,3 C 3,7 UV-I 3,9 C 42 % 40 % 100 % 1013,8 hPa 0,0 l/m 7,6 km/h (2 Bft) 2 min 0 min 9,2 km/h (2 Bft)
12.08.2012 15:58 27,4 C 26,4 C 3,7 UV-I 3,9 C 42 % 40 % 100 % 1013,8 hPa 0,0 l/m 7,6 km/h (2 Bft) 2 min 0 min 9,2 km/h (2 Bft)
12.08.2012 16:00 27,5 C 26,4 C 4,0 UV-I 4,2 C 42 % 40 % 100 % 1013,8 hPa 0,0 l/m 7,2 km/h (2 Bft) 2 min 0 min 9,2 km/h (2 Bft)
12.08.2012 16:02 27,5 C 26,5 C 4,0 UV-I 4,3 C 42 % 40 % 100 % 1013,8 hPa 0,0 l/m 7,2 km/h (2 Bft) 2 min 0 min 7,2 km/h (2 Bft)
12.08.2012 16:04 27,5 C 26,7 C 4,2 UV-I 4,3 C 42 % 40 % 100 % 1013,8 hPa 0,0 l/m 6,8 km/h (2 Bft) 2 min 0 min 12,0 km/h (2 Bft)
12.08.2012 16:06 27,6 C 26,6 C 4,2 UV-I 4,5 C 42 % 40 % 100 % 1013,8 hPa 0,0 l/m 6,8 km/h (2 Bft) 2 min 0 min 10,4 km/h (2 Bft)
12.08.2012 16:08 27,5 C 26,7 C 4,2 UV-I 4,5 C 42 % 39 % 100 % 1013,8 hPa 0,0 l/m 7,6 km/h (2 Bft) 2 min 0 min 20,5 km/h (4 Bft)
12.08.2012 16:10 27,5 C 26,7 C 4,2 UV-I 4,5 C 42 % 39 % 100 % 1013,9 hPa 0,0 l/m 7,6 km/h (2 Bft) 2 min 0 min 20,5 km/h (4 Bft)
12.08.2012 16:12 27,4 C 26,5 C 4,3 UV-I 4,5 C 42 % 40 % 100 % 1013,9 hPa 0,0 l/m 10,0 km/h (2 Bft) 2 min 0 min 20,5 km/h (4 Bft)
12.08.2012 16:14 27,4 C 26,7 C 4,3 UV-I 4,2 C 42 % 40 % 100 % 1013,9 hPa 0,0 l/m 9,6 km/h (2 Bft) 2 min 0 min 11,2 km/h (2 Bft)
12.08.2012 16:16 27,2 C 26,7 C 4,3 UV-I 4,4 C 42 % 40 % 100 % 1013,9 hPa 0,0 l/m 10,4 km/h (2 Bft) 2 min 0 min 21,3 km/h (4 Bft)
12.08.2012 16:18 27,2 C 26,7 C 4,3 UV-I 4,4 C 42 % 41 % 100 % 1013,9 hPa 0,0 l/m 10,4 km/h (2 Bft) 2 min 0 min 21,3 km/h (4 Bft)
12.08.2012 16:20 27,2 C 26,7 C 4,4 UV-I 4,4 C 42 % 41 % 100 % 1013,9 hPa 0,0 l/m 9,2 km/h (2 Bft) 2 min 0 min 15,7 km/h (3 Bft)
12.08.2012 16:22 27,2 C 26,8 C 4,4 UV-I 4,3 C 42 % 41 % 100 % 1013,9 hPa 0,0 l/m 8,8 km/h (2 Bft) 2 min 0 min 20,9 km/h (4 Bft)
12.08.2012 16:24 27,2 C 26,8 C 4,6 UV-I 4,3 C 42 % 40 % 100 % 1013,9 hPa 0,0 l/m 10,0 km/h (2 Bft) 2 min 0 min 20,9 km/h (4 Bft)
12.08.2012 16:26 27,2 C 26,7 C 4,6 UV-I 4,2 C 42 % 40 % 100 % 1013,9 hPa 0,0 l/m 10,8 km/h (2 Bft) 2 min 0 min 15,7 km/h (3 Bft)
12.08.2012 16:28 27,1 C 26,6 C 4,6 UV-I 4,2 C 42 % 40 % 100 % 1013,9 hPa 0,0 l/m 10,0 km/h (2 Bft) 2 min 0 min 16,9 km/h (3 Bft)
12.08.2012 16:30 27,1 C 26,6 C 4,6 UV-I 4,2 C 42 % 40 % 100 % 1014,0 hPa 0,0 l/m 10,0 km/h (2 Bft) 2 min 0 min 16,9 km/h (3 Bft)
12.08.2012 16:32 27,1 C 26,6 C 4,5 UV-I 4,2 C 42 % 41 % 100 % 1014,0 hPa 0,0 l/m 10,0 km/h (2 Bft) 2 min 0 min 16,9 km/h (3 Bft)
12.08.2012 16:34 27,0 C 26,7 C 4,4 UV-I 4,3 C 42 % 40 % 100 % 1014,0 hPa 0,0 l/m 9,2 km/h (2 Bft) 2 min 0 min 13,3 km/h (3 Bft)
12.08.2012 16:36 27,0 C 26,6 C 4,4 UV-I 4,3 C 42 % 40 % 100 % 1014,0 hPa 0,0 l/m 8,4 km/h (2 Bft) 2 min 0 min 13,3 km/h (3 Bft)
12.08.2012 16:38 26,9 C 26,6 C 4,4 UV-I 4,2 C 42 % 39 % 100 % 1014,0 hPa 0,0 l/m 8,4 km/h (2 Bft) 2 min 0 min 11,6 km/h (2 Bft)
12.08.2012 16:40 26,9 C 26,6 C 4,0 UV-I 4,1 C 42 % 40 % 100 % 1014,0 hPa 0,0 l/m 7,6 km/h (2 Bft) 2 min 0 min 11,6 km/h (2 Bft)
12.08.2012 16:42 26,8 C 26,6 C 4,0 UV-I 4,1 C 42 % 40 % 100 % 1014,0 hPa 0,0 l/m 7,6 km/h (2 Bft) 2 min 0 min 9,2 km/h (2 Bft)
12.08.2012 16:44 26,8 C 26,7 C 3,9 UV-I 3,9 C 42 % 41 % 100 % 1014,0 hPa 0,0 l/m 7,2 km/h (2 Bft) 2 min 0 min 9,6 km/h (2 Bft)
12.08.2012 16:46 26,8 C 26,7 C 3,9 UV-I 3,9 C 42 % 41 % 100 % 1014,0 hPa 0,0 l/m 6,4 km/h (2 Bft) 2 min 0 min 10,0 km/h (2 Bft)
12.08.2012 16:48 26,8 C 26,6 C 3,9 UV-I 3,9 C 43 % 41 % 100 % 1014,0 hPa 0,0 l/m 6,8 km/h (2 Bft) 2 min 0 min 13,7 km/h (3 Bft)
12.08.2012 16:50 26,8 C 26,6 C 3,9 UV-I 3,9 C 43 % 41 % 100 % 1013,8 hPa 0,0 l/m 6,8 km/h (2 Bft) 2 min 0 min 13,7 km/h (3 Bft)
12.08.2012 16:52 26,7 C 26,5 C 4,1 UV-I 3,7 C 43 % 41 % 100 % 1013,8 hPa 0,0 l/m 7,6 km/h (2 Bft) 2 min 0 min 13,7 km/h (3 Bft)
12.08.2012 16:54 26,6 C 26,5 C 4,2 UV-I 3,7 C 43 % 42 % 100 % 1013,8 hPa 0,0 l/m 7,6 km/h (2 Bft) 2 min 0 min 14,5 km/h (3 Bft)
12.08.2012 16:56 26,6 C 26,5 C 4,2 UV-I 3,7 C 43 % 42 % 100 % 1013,8 hPa 0,0 l/m 8,0 km/h (2 Bft) 2 min 0 min 14,5 km/h (3 Bft)
12.08.2012 16:58 26,6 C 26,5 C 4,2 UV-I 3,9 C 43 % 42 % 100 % 1013,8 hPa 0,0 l/m 8,0 km/h (2 Bft) 2 min 0 min 10,4 km/h (2 Bft)
12.08.2012 17:00 26,6 C 26,7 C 4,2 UV-I 3,7 C 43 % 41 % 100 % 1013,8 hPa 0,0 l/m 7,2 km/h (2 Bft) 2 min 0 min 10,4 km/h (2 Bft)
12.08.2012 17:02 26,5 C 26,6 C 4,2 UV-I 3,7 C 43 % 41 % 100 % 1013,8 hPa 0,0 l/m 7,6 km/h (2 Bft) 2 min 0 min 12,4 km/h (3 Bft)
12.08.2012 17:04 26,5 C 26,5 C 4,2 UV-I 3,7 C 43 % 41 % 100 % 1013,8 hPa 0,0 l/m 8,0 km/h (2 Bft) 2 min 0 min 13,7 km/h (3 Bft)
12.08.2012 17:06 26,4 C 26,5 C 4,2 UV-I 3,7 C 43 % 41 % 100 % 1013,8 hPa 0,0 l/m 7,6 km/h (2 Bft) 2 min 0 min 4,4 km/h (1 Bft)
12.08.2012 17:08 26,4 C 26,4 C 4,2 UV-I 3,8 C 43 % 41 % 100 % 1013,8 hPa 0,0 l/m 7,6 km/h (2 Bft) 2 min 0 min 5,2 km/h (1 Bft)
12.08.2012 17:10 26,4 C 26,4 C 4,2 UV-I 3,8 C 43 % 41 % 100 % 1013,4 hPa 0,0 l/m 7,6 km/h (2 Bft) 2 min 0 min 5,2 km/h (1 Bft)
12.08.2012 17:12 26,4 C 26,4 C 4,1 UV-I 3,8 C 43 % 42 % 100 % 1013,4 hPa 0,0 l/m 8,0 km/h (2 Bft) 2 min 0 min 13,3 km/h (3 Bft)
12.08.2012 17:14 26,4 C 26,5 C 4,0 UV-I 3,6 C 43 % 42 % 100 % 1013,4 hPa 0,0 l/m 8,4 km/h (2 Bft) 2 min 0 min 13,3 km/h (3 Bft)
12.08.2012 17:16 26,4 C 26,5 C 4,0 UV-I 3,6 C 44 % 42 % 100 % 1013,4 hPa 0,0 l/m 8,0 km/h (2 Bft) 2 min 0 min 12,8 km/h (3 Bft)
12.08.2012 17:18 26,4 C 26,5 C 4,0 UV-I 3,5 C 44 % 42 % 100 % 1013,4 hPa 0,0 l/m 8,4 km/h (2 Bft) 2 min 0 min 14,5 km/h (3 Bft)
12.08.2012 17:20 26,2 C 26,5 C 2,9 UV-I 3,5 C 44 % 42 % 100 % 1013,4 hPa 0,0 l/m 8,0 km/h (2 Bft) 2 min 0 min 14,5 km/h (3 Bft)
12.08.2012 17:22 26,3 C 26,4 C 2,9 UV-I 3,5 C 44 % 42 % 100 % 1013,4 hPa 0,0 l/m 7,6 km/h (2 Bft) 2 min 0 min 11,2 km/h (2 Bft)
12.08.2012 17:24 26,3 C 26,4 C 3,3 UV-I 3,5 C 44 % 43 % 100 % 1013,4 hPa 0,0 l/m 6,8 km/h (2 Bft) 2 min 0 min 8,8 km/h (2 Bft)
12.08.2012 17:26 26,3 C 26,4 C 3,3 UV-I 3,3 C 44 % 43 % 94 % 1013,4 hPa 0,0 l/m 6,4 km/h (2 Bft) 2 min 0 min 9,2 km/h (2 Bft)
12.08.2012 17:28 26,2 C 26,3 C 3,3 UV-I 3,3 C 44 % 42 % 94 % 1013,4 hPa 0,0 l/m 6,8 km/h (2 Bft) 2 min 0 min 14,5 km/h (3 Bft)
12.08.2012 17:30 26,2 C 26,3 C 3,3 UV-I 3,2 C 44 % 42 % 91 % 1013,2 hPa 0,0 l/m 6,8 km/h (2 Bft) 2 min 0 min 14,5 km/h (3 Bft)
12.08.2012 17:32 26,2 C 26,3 C 2,0 UV-I 3,1 C 44 % 43 % 89 % 1013,2 hPa 0,0 l/m 6,4 km/h (2 Bft) 2 min 0 min 7,2 km/h (2 Bft)
12.08.2012 17:34 26,2 C 26,2 C 1,7 UV-I 3,1 C 44 % 42 % 89 % 1013,2 hPa 0,0 l/m 6,0 km/h (2 Bft) 2 min 0 min 6,4 km/h (2 Bft)
12.08.2012 17:36 26,2 C 26,1 C 1,7 UV-I 3,1 C 44 % 42 % 89 % 1013,2 hPa 0,0 l/m 6,8 km/h (2 Bft) 2 min 0 min 16,5 km/h (3 Bft)
12.08.2012 17:38 26,2 C 26,0 C 1,7 UV-I 3,2 C 44 % 42 % 91 % 1013,2 hPa 0,0 l/m 7,2 km/h (2 Bft) 2 min 0 min 16,5 km/h (3 Bft)
12.08.2012 17:40 26,2 C 26,0 C 2,1 UV-I 3,1 C 44 % 42 % 89 % 1013,2 hPa 0,0 l/m 6,0 km/h (2 Bft) 2 min 0 min 13,3 km/h (3 Bft)
12.08.2012 17:42 26,2 C 25,9 C 2,1 UV-I 3,3 C 44 % 42 % 94 % 1013,2 hPa 0,0 l/m 5,6 km/h (1 Bft) 2 min 0 min 7,6 km/h (2 Bft)
12.08.2012 17:44 26,2 C 25,9 C 1,4 UV-I 3,4 C 44 % 42 % 97 % 1013,2 hPa 0,0 l/m 6,8 km/h (2 Bft) 2 min 0 min 10,0 km/h (2 Bft)
12.08.2012 17:46 26,1 C 25,9 C 1,4 UV-I 3,4 C 44 % 43 % 97 % 1013,2 hPa 0,0 l/m 6,8 km/h (2 Bft) 2 min 0 min 10,0 km/h (2 Bft)
12.08.2012 17:48 26,1 C 25,9 C 1,4 UV-I 3,4 C 44 % 44 % 97 % 1013,2 hPa 0,0 l/m 5,6 km/h (1 Bft) 2 min 0 min 17,7 km/h (3 Bft)
12.08.2012 17:50 26,1 C 25,9 C 1,4 UV-I 3,4 C 44 % 44 % 97 % 1013,5 hPa 0,0 l/m 6,4 km/h (2 Bft) 2 min 0 min 17,7 km/h (3 Bft)
12.08.2012 17:52 26,1 C 25,8 C 1,1 UV-I 3,4 C 44 % 44 % 97 % 1013,5 hPa 0,0 l/m 5,6 km/h (1 Bft) 2 min 0 min 8,8 km/h (2 Bft)
12.08.2012 17:54 26,1 C 25,9 C 1,1 UV-I 3,3 C 44 % 44 % 94 % 1013,5 hPa 0,0 l/m 5,6 km/h (1 Bft) 2 min 0 min 6,0 km/h (2 Bft)
12.08.2012 17:56 26,1 C 25,8 C 1,1 UV-I 3,4 C 44 % 43 % 97 % 1013,5 hPa 0,0 l/m 5,2 km/h (1 Bft) 2 min 0 min 12,0 km/h (2 Bft)
12.08.2012 17:58 26,1 C 25,7 C 1,1 UV-I 3,5 C 45 % 43 % 100 % 1013,5 hPa 0,0 l/m 5,6 km/h (1 Bft) 2 min 0 min 12,0 km/h (2 Bft)
12.08.2012 18:00 26,1 C 25,7 C 1,1 UV-I 3,4 C 45 % 43 % 97 % 1013,5 hPa 0,0 l/m 6,0 km/h (2 Bft) 2 min 0 min 16,9 km/h (3 Bft)
12.08.2012 18:02 26,1 C 25,6 C 1,1 UV-I 3,2 C 45 % 43 % 91 % 1013,5 hPa 0,0 l/m 6,8 km/h (2 Bft) 2 min 0 min 16,9 km/h (3 Bft)
12.08.2012 18:04 26,1 C 25,6 C 1,0 UV-I 3,0 C 45 % 44 % 86 % 1013,5 hPa 0,0 l/m 6,8 km/h (2 Bft) 2 min 0 min 4,8 km/h (1 Bft)
12.08.2012 18:06 26,1 C 25,6 C 1,0 UV-I 2,8 C 45 % 44 % 80 % 1013,5 hPa 0,0 l/m 7,2 km/h (2 Bft) 0 min 0 min 8,8 km/h (2 Bft)
12.08.2012 18:08 26,1 C 25,6 C 1,0 UV-I 2,8 C 45 % 44 % 80 % 1013,5 hPa 0,0 l/m 7,2 km/h (2 Bft) 0 min 0 min 10,8 km/h (2 Bft)
12.08.2012 18:10 26,1 C 25,6 C 1,0 UV-I 2,9 C 45 % 44 % 83 % 1013,1 hPa 0,0 l/m 6,8 km/h (2 Bft) 2 min 0 min 11,2 km/h (2 Bft)
12.08.2012 18:12 26,1 C 25,7 C 0,9 UV-I 2,8 C 45 % 44 % 80 % 1013,1 hPa 0,0 l/m 6,4 km/h (2 Bft) 0 min 0 min 11,2 km/h (2 Bft)
12.08.2012 18:14 26,0 C 25,7 C 1,0 UV-I 2,7 C 45 % 44 % 77 % 1013,1 hPa 0,0 l/m 6,0 km/h (2 Bft) 0 min 0 min 6,4 km/h (2 Bft)
12.08.2012 18:16 26,0 C 25,7 C 1,0 UV-I 2,3 C 45 % 44 % 66 % 1013,1 hPa 0,0 l/m 6,0 km/h (2 Bft) 0 min 0 min 8,8 km/h (2 Bft)
12.08.2012 18:18 26,1 C 25,6 C 1,0 UV-I 2,3 C 45 % 44 % 66 % 1013,1 hPa 0,0 l/m 4,8 km/h (1 Bft) 0 min 0 min 8,8 km/h (2 Bft)
12.08.2012 18:20 26,0 C 25,6 C 1,0 UV-I 2,4 C 45 % 45 % 69 % 1013,1 hPa 0,0 l/m 4,4 km/h (1 Bft) 0 min 0 min 12,8 km/h (3 Bft)
12.08.2012 18:22 26,0 C 25,7 C 1,0 UV-I 2,4 C 45 % 44 % 69 % 1013,1 hPa 0,0 l/m 4,0 km/h (1 Bft) 0 min 0 min 12,8 km/h (3 Bft)
12.08.2012 18:24 26,0 C 25,7 C 0,8 UV-I 2,3 C 45 % 44 % 66 % 1013,1 hPa 0,0 l/m 5,2 km/h (1 Bft) 0 min 0 min 11,2 km/h (2 Bft)
12.08.2012 18:26 26,0 C 25,5 C 0,8 UV-I 2,1 C 45 % 44 % 60 % 1013,1 hPa 0,0 l/m 6,0 km/h (2 Bft) 0 min 0 min 13,7 km/h (3 Bft)
12.08.2012 18:28 26,0 C 25,5 C 0,8 UV-I 1,6 C 45 % 44 % 46 % 1013,1 hPa 0,0 l/m 8,0 km/h (2 Bft) 0 min 0 min 13,7 km/h (3 Bft)
12.08.2012 18:30 26,0 C 25,5 C 0,8 UV-I 1,4 C 45 % 44 % 40 % 1012,6 hPa 0,0 l/m 8,4 km/h (2 Bft) 0 min 0 min 11,2 km/h (2 Bft)
12.08.2012 18:32 26,0 C 25,4 C 1,0 UV-I 1,0 C 45 % 44 % 29 % 1012,6 hPa 0,0 l/m 8,8 km/h (2 Bft) 0 min 0 min 9,6 km/h (2 Bft)
12.08.2012 18:34 26,0 C 25,3 C 0,8 UV-I 0,8 C 45 % 44 % 23 % 1012,6 hPa 0,0 l/m 8,8 km/h (2 Bft) 0 min 0 min 11,2 km/h (2 Bft)
12.08.2012 18:36 26,0 C 25,3 C 0,8 UV-I 0,8 C 45 % 45 % 23 % 1012,6 hPa 0,0 l/m 8,4 km/h (2 Bft) 0 min 0 min 11,2 km/h (2 Bft)
12.08.2012 18:38 26,0 C 25,2 C 0,8 UV-I 0,7 C 45 % 44 % 20 % 1012,6 hPa 0,0 l/m 6,8 km/h (2 Bft) 0 min 0 min 6,0 km/h (2 Bft)
12.08.2012 18:40 26,0 C 25,2 C 0,7 UV-I 0,5 C 45 % 44 % 14 % 1012,6 hPa 0,0 l/m 6,4 km/h (2 Bft) 0 min 0 min 8,4 km/h (2 Bft)
12.08.2012 18:42 26,0 C 25,2 C 0,7 UV-I 0,4 C 45 % 44 % 11 % 1012,6 hPa 0,0 l/m 6,8 km/h (2 Bft) 0 min 0 min 12,8 km/h (3 Bft)
12.08.2012 18:44 26,0 C 25,2 C 0,7 UV-I 0,2 C 45 % 44 % 6 % 1012,6 hPa 0,0 l/m 5,6 km/h (1 Bft) 0 min 0 min 12,8 km/h (3 Bft)
12.08.2012 18:46 26,0 C 25,1 C 0,7 UV-I 0,2 C 45 % 44 % 6 % 1012,6 hPa 0,0 l/m 5,6 km/h (1 Bft) 0 min 0 min 8,4 km/h (2 Bft)
12.08.2012 18:48 26,0 C 25,1 C 0,7 UV-I 0,2 C 45 % 44 % 6 % 1012,6 hPa 0,0 l/m 6,4 km/h (2 Bft) 0 min 0 min 12,0 km/h (2 Bft)
12.08.2012 18:50 26,0 C 25,1 C 0,7 UV-I 0,0 C 45 % 44 % 0 % 1013,2 hPa 0,0 l/m 6,4 km/h (2 Bft) 0 min 0 min 12,0 km/h (2 Bft)
12.08.2012 18:52 26,0 C 25,1 C 0,7 UV-I 0,0 C 44 % 45 % 0 % 1013,2 hPa 0,0 l/m 6,0 km/h (2 Bft) 0 min 0 min 0,0 km/h (0 Bft)
12.08.2012 18:54 26,0 C 25,0 C 0,7 UV-I 0,0 C 45 % 45 % 0 % 1013,2 hPa 0,0 l/m 5,6 km/h (1 Bft) 0 min 0 min 4,8 km/h (1 Bft)
12.08.2012 18:56 25,9 C 25,1 C 0,7 UV-I 0,0 C 44 % 45 % 0 % 1013,2 hPa 0,0 l/m 6,4 km/h (2 Bft) 0 min 0 min 11,2 km/h (2 Bft)
12.08.2012 18:58 25,9 C 25,0 C 0,7 UV-I 0,0 C 45 % 44 % 0 % 1013,2 hPa 0,0 l/m 7,2 km/h (2 Bft) 0 min 0 min 12,0 km/h (2 Bft)
12.08.2012 19:00 25,9 C 24,9 C 0,5 UV-I 0,0 C 45 % 45 % 0 % 1013,2 hPa 0,0 l/m 6,8 km/h (2 Bft) 0 min 0 min 12,0 km/h (2 Bft)
12.08.2012 19:02 25,9 C 24,9 C 0,5 UV-I 0,0 C 45 % 45 % 0 % 1013,2 hPa 0,0 l/m 6,4 km/h (2 Bft) 0 min 0 min 10,4 km/h (2 Bft)
12.08.2012 19:04 25,9 C 24,8 C 0,5 UV-I 0,0 C 45 % 45 % 0 % 1013,2 hPa 0,0 l/m 6,8 km/h (2 Bft) 0 min 0 min 9,2 km/h (2 Bft)
12.08.2012 19:06 25,9 C 24,8 C 0,5 UV-I 0,0 C 45 % 45 % 0 % 1013,2 hPa 0,0 l/m 7,2 km/h (2 Bft) 0 min 0 min 12,4 km/h (3 Bft)
12.08.2012 19:08 25,8 C 24,9 C 0,5 UV-I 0,0 C 45 % 44 % 0 % 1013,2 hPa 0,0 l/m 6,0 km/h (2 Bft) 0 min 0 min 12,4 km/h (3 Bft)
12.08.2012 19:10 25,8 C 24,9 C 0,5 UV-I 0,0 C 45 % 44 % 0 % 1013,1 hPa 0,0 l/m 6,0 km/h (2 Bft) 0 min 0 min 10,8 km/h (2 Bft)
12.08.2012 19:12 25,8 C 24,8 C 0,5 UV-I 0,0 C 45 % 45 % 0 % 1013,1 hPa 0,0 l/m 6,8 km/h (2 Bft) 0 min 0 min 18,9 km/h (3 Bft)
12.08.2012 19:14 25,8 C 24,7 C 0,4 UV-I 0,0 C 44 % 45 % 0 % 1013,1 hPa 0,0 l/m 8,0 km/h (2 Bft) 0 min 0 min 24,9 km/h (4 Bft)
12.08.2012 19:16 25,8 C 24,7 C 0,4 UV-I 0,0 C 45 % 45 % 0 % 1013,1 hPa 0,0 l/m 8,8 km/h (2 Bft) 0 min 0 min 24,9 km/h (4 Bft)
12.08.2012 19:18 25,8 C 24,6 C 0,4 UV-I 0,0 C 45 % 45 % 0 % 1013,1 hPa 0,0 l/m 7,6 km/h (2 Bft) 0 min 0 min 10,8 km/h (2 Bft)
12.08.2012 19:20 25,8 C 24,6 C 0,4 UV-I 0,0 C 45 % 45 % 0 % 1013,1 hPa 0,0 l/m 8,0 km/h (2 Bft) 0 min 0 min 8,0 km/h (2 Bft)
12.08.2012 19:22 25,8 C 24,6 C 0,4 UV-I 0,0 C 45 % 44 % 0 % 1013,1 hPa 0,0 l/m 7,2 km/h (2 Bft) 0 min 0 min 8,0 km/h (2 Bft)
12.08.2012 19:24 25,8 C 24,6 C 0,4 UV-I 0,0 C 45 % 44 % 0 % 1013,1 hPa 0,0 l/m 6,4 km/h (2 Bft) 0 min 0 min 4,4 km/h (1 Bft)
12.08.2012 19:26 25,7 C 24,6 C 0,4 UV-I 0,0 C 45 % 45 % 0 % 1013,1 hPa 0,0 l/m 4,8 km/h (1 Bft) 0 min 0 min 6,4 km/h (2 Bft)
12.08.2012 19:28 25,7 C 24,6 C 0,4 UV-I 0,0 C 45 % 45 % 0 % 1013,1 hPa 0,0 l/m 4,4 km/h (1 Bft) 0 min 0 min 9,2 km/h (2 Bft)
12.08.2012 19:30 25,7 C 24,6 C 0,4 UV-I 0,0 C 45 % 45 % 0 % 1013,1 hPa 0,0 l/m 4,8 km/h (1 Bft) 0 min 0 min 9,2 km/h (2 Bft)
12.08.2012 19:32 25,7 C 24,5 C 0,3 UV-I 0,0 C 45 % 45 % 0 % 1013,1 hPa 0,0 l/m 3,6 km/h (1 Bft) 0 min 0 min 6,0 km/h (2 Bft)
12.08.2012 19:34 25,7 C 24,5 C 0,2 UV-I 0,0 C 45 % 45 % 0 % 1013,1 hPa 0,0 l/m 2,8 km/h (1 Bft) 0 min 0 min 4,4 km/h (1 Bft)
12.08.2012 19:36 25,7 C 24,5 C 0,2 UV-I 0,0 C 45 % 45 % 0 % 1013,1 hPa 0,0 l/m 3,2 km/h (1 Bft) 0 min 0 min 8,4 km/h (2 Bft)
12.08.2012 19:38 25,7 C 24,5 C 0,2 UV-I 0,0 C 45 % 46 % 0 % 1013,1 hPa 0,0 l/m 3,2 km/h (1 Bft) 0 min 0 min 12,4 km/h (3 Bft)
12.08.2012 19:40 25,6 C 24,4 C 0,2 UV-I 0,0 C 45 % 45 % 0 % 1013,1 hPa 0,0 l/m 2,4 km/h (1 Bft) 0 min 0 min 12,4 km/h (3 Bft)
12.08.2012 19:42 25,6 C 24,4 C 0,2 UV-I 0,0 C 45 % 46 % 0 % 1013,1 hPa 0,0 l/m 2,8 km/h (1 Bft) 0 min 0 min 7,6 km/h (2 Bft)
12.08.2012 19:44 25,6 C 24,4 C 0,2 UV-I 0,0 C 45 % 46 % 0 % 1013,1 hPa 0,0 l/m 4,0 km/h (1 Bft) 0 min 0 min 7,6 km/h (2 Bft)
12.08.2012 19:46 25,6 C 24,4 C 0,2 UV-I 0,0 C 45 % 46 % 0 % 1013,1 hPa 0,0 l/m 4,8 km/h (1 Bft) 0 min 0 min 8,8 km/h (2 Bft)
12.08.2012 19:48 25,6 C 24,3 C 0,2 UV-I 0,0 C 45 % 46 % 0 % 1013,1 hPa 0,0 l/m 4,8 km/h (1 Bft) 0 min 0 min 8,8 km/h (2 Bft)
12.08.2012 19:50 25,6 C 24,3 C 0,2 UV-I 0,0 C 45 % 46 % 0 % 1013,2 hPa 0,0 l/m 4,0 km/h (1 Bft) 0 min 0 min 0,0 km/h (0 Bft)
12.08.2012 19:52 25,6 C 24,2 C 0,2 UV-I 0,0 C 45 % 46 % 0 % 1013,2 hPa 0,0 l/m 4,0 km/h (1 Bft) 0 min 0 min 10,0 km/h (2 Bft)
12.08.2012 19:54 25,6 C 24,1 C 0,1 UV-I 0,0 C 45 % 46 % 0 % 1013,2 hPa 0,0 l/m 4,0 km/h (1 Bft) 0 min 0 min 10,0 km/h (2 Bft)
12.08.2012 19:56 25,6 C 24,1 C 0,1 UV-I 0,0 C 45 % 46 % 0 % 1013,2 hPa 0,0 l/m 3,6 km/h (1 Bft) 0 min 0 min 10,0 km/h (2 Bft)
12.08.2012 19:58 25,5 C 24,0 C 0,1 UV-I 0,0 C 45 % 46 % 0 % 1013,2 hPa 0,0 l/m 3,2 km/h (1 Bft) 0 min 0 min 5,6 km/h (1 Bft)
12.08.2012 20:00 25,5 C 24,0 C 0,1 UV-I 0,0 C 45 % 47 % 0 % 1013,2 hPa 0,0 l/m 2,8 km/h (1 Bft) 0 min 0 min 7,2 km/h (2 Bft)
12.08.2012 20:02 25,5 C 24,0 C 0,1 UV-I 0,0 C 45 % 47 % 0 % 1013,2 hPa 0,0 l/m 2,8 km/h (1 Bft) 0 min 0 min 7,2 km/h (2 Bft)
12.08.2012 20:04 25,5 C 24,0 C 0,0 UV-I 0,0 C 45 % 47 % 0 % 1013,2 hPa 0,0 l/m 2,4 km/h (1 Bft) 0 min 0 min 4,4 km/h (1 Bft)
12.08.2012 20:06 25,5 C 23,9 C 0,0 UV-I 0,0 C 45 % 47 % 0 % 1013,2 hPa 0,0 l/m 2,4 km/h (1 Bft) 0 min 0 min 5,6 km/h (1 Bft)
12.08.2012 20:08 25,5 C 23,9 C 0,0 UV-I 0,0 C 45 % 47 % 0 % 1013,2 hPa 0,0 l/m 2,0 km/h (1 Bft) 0 min 0 min 5,6 km/h (1 Bft)
12.08.2012 20:10 25,5 C 23,9 C 0,0 UV-I 0,0 C 45 % 47 % 0 % 1013,0 hPa 0,0 l/m 2,4 km/h (1 Bft) 0 min 0 min 5,2 km/h (1 Bft)
12.08.2012 20:12 25,4 C 23,9 C 0,0 UV-I 0,0 C 45 % 47 % 0 % 1013,0 hPa 0,0 l/m 2,8 km/h (1 Bft) 0 min 0 min 4,4 km/h (1 Bft)
12.08.2012 20:14 25,4 C 23,9 C 0,0 UV-I 0,0 C 45 % 47 % 0 % 1013,0 hPa 0,0 l/m 2,8 km/h (1 Bft) 0 min 0 min 6,0 km/h (2 Bft)
12.08.2012 20:16 25,4 C 23,8 C 0,0 UV-I 0,0 C 45 % 47 % 0 % 1013,0 hPa 0,0 l/m 2,4 km/h (1 Bft) 0 min 0 min 6,0 km/h (2 Bft)
12.08.2012 20:18 25,4 C 23,7 C 0,0 UV-I 0,0 C 46 % 48 % 0 % 1013,0 hPa 0,0 l/m 2,8 km/h (1 Bft) 0 min 0 min 7,2 km/h (2 Bft)
12.08.2012 20:20 25,4 C 23,7 C 0,0 UV-I 0,0 C 46 % 48 % 0 % 1013,0 hPa 0,0 l/m 2,4 km/h (1 Bft) 0 min 0 min 7,6 km/h (2 Bft)
12.08.2012 20:22 25,4 C 23,7 C 0,0 UV-I 0,0 C 46 % 48 % 0 % 1013,0 hPa 0,0 l/m 2,4 km/h (1 Bft) 0 min 0 min 7,6 km/h (2 Bft)
12.08.2012 20:24 25,4 C 23,6 C 0,0 UV-I 0,0 C 46 % 47 % 0 % 1013,0 hPa 0,0 l/m 2,8 km/h (1 Bft) 0 min 0 min 10,0 km/h (2 Bft)
12.08.2012 20:26 25,4 C 23,5 C 0,0 UV-I 0,0 C 46 % 48 % 0 % 1013,0 hPa 0,0 l/m 2,8 km/h (1 Bft) 0 min 0 min 10,0 km/h (2 Bft)
12.08.2012 20:28 25,4 C 23,6 C 0,0 UV-I 0,0 C 46 % 48 % 0 % 1013,0 hPa 0,0 l/m 3,2 km/h (1 Bft) 0 min 0 min 4,0 km/h (1 Bft)
12.08.2012 20:30 25,4 C 23,6 C 0,0 UV-I 0,0 C 46 % 48 % 0 % 1013,2 hPa 0,0 l/m 2,8 km/h (1 Bft) 0 min 0 min 6,8 km/h (2 Bft)
12.08.2012 20:32 25,4 C 23,5 C 0,0 UV-I 0,0 C 46 % 48 % 0 % 1013,2 hPa 0,0 l/m 2,4 km/h (1 Bft) 0 min 0 min 6,8 km/h (2 Bft)
12.08.2012 20:34 25,2 C 23,4 C 0,0 UV-I 0,0 C 46 % 48 % 0 % 1013,2 hPa 0,0 l/m 2,4 km/h (1 Bft) 0 min 0 min 5,2 km/h (1 Bft)
12.08.2012 20:36 25,2 C 23,3 C 0,0 UV-I 0,0 C 46 % 48 % 0 % 1013,2 hPa 0,0 l/m 2,4 km/h (1 Bft) 0 min 0 min 5,2 km/h (1 Bft)
12.08.2012 20:38 25,2 C 23,2 C 0,0 UV-I 0,0 C 46 % 48 % 0 % 1013,2 hPa 0,0 l/m 2,4 km/h (1 Bft) 0 min 0 min 4,8 km/h (1 Bft)
12.08.2012 20:40 25,3 C 23,3 C 0,0 UV-I 0,0 C 46 % 48 % 0 % 1013,2 hPa 0,0 l/m 2,4 km/h (1 Bft) 0 min 0 min 4,0 km/h (1 Bft)
12.08.2012 20:42 25,3 C 23,2 C 0,0 UV-I 0,0 C 46 % 49 % 0 % 1013,2 hPa 0,0 l/m 2,0 km/h (1 Bft) 0 min 0 min 5,2 km/h (1 Bft)
12.08.2012 20:44 25,2 C 23,1 C 0,0 UV-I 0,0 C 46 % 48 % 0 % 1013,2 hPa 0,0 l/m 2,4 km/h (1 Bft) 0 min 0 min 5,2 km/h (1 Bft)
12.08.2012 20:46 25,2 C 23,1 C 0,0 UV-I 0,0 C 46 % 49 % 0 % 1013,2 hPa 0,0 l/m 2,0 km/h (1 Bft) 0 min 0 min 5,2 km/h (1 Bft)
12.08.2012 20:48 25,2 C 23,1 C 0,0 UV-I 0,0 C 46 % 49 % 0 % 1013,2 hPa 0,0 l/m 1,6 km/h (1 Bft) 0 min 0 min 0,0 km/h (0 Bft)
12.08.2012 20:50 25,2 C 23,1 C 0,0 UV-I 0,0 C 46 % 49 % 0 % 1013,1 hPa 0,0 l/m 1,6 km/h (1 Bft) 0 min 0 min 4,8 km/h (1 Bft)
12.08.2012 20:52 25,2 C 22,9 C 0,0 UV-I 0,0 C 46 % 49 % 0 % 1013,1 hPa 0,0 l/m 2,0 km/h (1 Bft) 0 min 0 min 5,6 km/h (1 Bft)
12.08.2012 20:54 25,2 C 22,9 C 0,0 UV-I 0,0 C 46 % 49 % 0 % 1013,1 hPa 0,0 l/m 1,6 km/h (1 Bft) 0 min 0 min 5,6 km/h (1 Bft)
12.08.2012 20:56 25,2 C 22,9 C 0,0 UV-I 0,0 C 46 % 49 % 0 % 1013,1 hPa 0,0 l/m 0,8 km/h (0 Bft) 0 min 0 min 0,0 km/h (0 Bft)
12.08.2012 20:58 25,2 C 22,8 C 0,0 UV-I 0,0 C 46 % 49 % 0 % 1013,1 hPa 0,0 l/m 0,8 km/h (0 Bft) 0 min 0 min 0,0 km/h (0 Bft)
12.08.2012 21:00 25,2 C 22,8 C 0,0 UV-I 0,0 C 46 % 49 % 0 % 1013,1 hPa 0,0 l/m 1,2 km/h (1 Bft) 0 min 0 min 4,8 km/h (1 Bft)
12.08.2012 21:02 25,2 C 22,7 C 0,0 UV-I 0,0 C 46 % 50 % 0 % 1013,1 hPa 0,0 l/m 0,8 km/h (0 Bft) 0 min 0 min 4,8 km/h (1 Bft)
12.08.2012 21:04 25,2 C 22,6 C 0,0 UV-I 0,0 C 46 % 50 % 0 % 1013,1 hPa 0,0 l/m 0,8 km/h (0 Bft) 0 min 0 min 4,8 km/h (1 Bft)
12.08.2012 21:06 25,1 C 22,6 C 0,0 UV-I 0,0 C 46 % 50 % 0 % 1013,1 hPa 0,0 l/m 1,2 km/h (1 Bft) 0 min 0 min 4,8 km/h (1 Bft)
12.08.2012 21:08 25,2 C 22,5 C 0,0 UV-I 0,0 C 46 % 50 % 0 % 1013,1 hPa 0,0 l/m 1,2 km/h (1 Bft) 0 min 0 min 7,2 km/h (2 Bft)
12.08.2012 21:10 25,2 C 22,5 C 0,0 UV-I 0,0 C 46 % 50 % 0 % 1013,3 hPa 0,0 l/m 1,2 km/h (1 Bft) 0 min 0 min 7,2 km/h (2 Bft)
12.08.2012 21:12 25,1 C 22,4 C 0,0 UV-I 0,0 C 46 % 50 % 0 % 1013,3 hPa 0,0 l/m 1,2 km/h (1 Bft) 0 min 0 min 4,0 km/h (1 Bft)
12.08.2012 21:14 25,1 C 22,5 C 0,0 UV-I 0,0 C 46 % 50 % 0 % 1013,3 hPa 0,0 l/m 1,2 km/h (1 Bft) 0 min 0 min 4,0 km/h (1 Bft)
12.08.2012 21:16 25,1 C 22,4 C 0,0 UV-I 0,0 C 47 % 50 % 0 % 1013,3 hPa 0,0 l/m 1,2 km/h (1 Bft) 0 min 0 min 0,0 km/h (0 Bft)
12.08.2012 21:18 25,1 C 22,4 C 0,0 UV-I 0,0 C 46 % 50 % 0 % 1013,3 hPa 0,0 l/m 0,8 km/h (0 Bft) 0 min 0 min 0,0 km/h (0 Bft)
12.08.2012 21:20 25,1 C 22,2 C 0,0 UV-I 0,0 C 47 % 51 % 0 % 1013,3 hPa 0,0 l/m 0,8 km/h (0 Bft) 0 min 0 min 4,8 km/h (1 Bft)
12.08.2012 21:22 25,0 C 22,3 C 0,0 UV-I 0,0 C 47 % 51 % 0 % 1013,3 hPa 0,0 l/m 0,8 km/h (0 Bft) 0 min 0 min 4,8 km/h (1 Bft)
12.08.2012 21:24 25,0 C 22,1 C 0,0 UV-I 0,0 C 47 % 51 % 0 % 1013,3 hPa 0,0 l/m 0,8 km/h (0 Bft) 0 min 0 min 4,4 km/h (1 Bft)
12.08.2012 21:26 25,0 C 22,1 C 0,0 UV-I 0,0 C 47 % 51 % 0 % 1013,3 hPa 0,0 l/m 0,4 km/h (0 Bft) 0 min 0 min 4,4 km/h (1 Bft)
12.08.2012 21:28 25,0 C 22,0 C 0,0 UV-I 0,0 C 47 % 51 % 0 % 1013,3 hPa 0,0 l/m 0,4 km/h (0 Bft) 0 min 0 min 0,0 km/h (0 Bft)
12.08.2012 21:30 25,0 C 22,0 C 0,0 UV-I 0,0 C 47 % 51 % 0 % 1013,2 hPa 0,0 l/m 0,4 km/h (0 Bft) 0 min 0 min 0,0 km/h (0 Bft)
12.08.2012 21:32 25,0 C 22,0 C 0,0 UV-I 0,0 C 47 % 51 % 0 % 1013,2 hPa 0,0 l/m 0,0 km/h (0 Bft) 0 min 0 min 0,0 km/h (0 Bft)
12.08.2012 21:34 25,0 C 21,9 C 0,0 UV-I 0,0 C 47 % 51 % 0 % 1013,2 hPa 0,0 l/m 0,4 km/h (0 Bft) 0 min 0 min 4,8 km/h (1 Bft)
12.08.2012 21:36 25,0 C 21,8 C 0,0 UV-I 0,0 C 47 % 52 % 0 % 1013,2 hPa 0,0 l/m 0,4 km/h (0 Bft) 0 min 0 min 5,6 km/h (1 Bft)
12.08.2012 21:38 25,0 C 21,9 C 0,0 UV-I 0,0 C 47 % 52 % 0 % 1013,2 hPa 0,0 l/m 0,8 km/h (0 Bft) 0 min 0 min 5,6 km/h (1 Bft)
12.08.2012 21:40 25,0 C 21,8 C 0,0 UV-I 0,0 C 47 % 52 % 0 % 1013,2 hPa 0,0 l/m 1,2 km/h (1 Bft) 0 min 0 min 6,4 km/h (2 Bft)
12.08.2012 21:42 25,0 C 21,7 C 0,0 UV-I 0,0 C 47 % 52 % 0 % 1013,2 hPa 0,0 l/m 1,2 km/h (1 Bft) 0 min 0 min 6,4 km/h (2 Bft)
12.08.2012 21:44 24,9 C 21,7 C 0,0 UV-I 0,0 C 47 % 52 % 0 % 1013,2 hPa 0,0 l/m 1,2 km/h (1 Bft) 0 min 0 min 5,2 km/h (1 Bft)
12.08.2012 21:46 24,9 C 21,6 C 0,0 UV-I 0,0 C 47 % 52 % 0 % 1013,2 hPa 0,0 l/m 1,2 km/h (1 Bft) 0 min 0 min 5,2 km/h (1 Bft)
12.08.2012 21:48 24,9 C 21,7 C 0,0 UV-I 0,0 C 47 % 52 % 0 % 1013,2 hPa 0,0 l/m 0,8 km/h (0 Bft) 0 min 0 min 0,0 km/h (0 Bft)
12.08.2012 21:50 24,9 C 21,7 C 0,0 UV-I 0,0 C 47 % 52 % 0 % 1013,2 hPa 0,0 l/m 0,8 km/h (0 Bft) 0 min 0 min 7,2 km/h (2 Bft)
12.08.2012 21:52 24,9 C 21,6 C 0,0 UV-I 0,0 C 47 % 52 % 0 % 1013,2 hPa 0,0 l/m 0,8 km/h (0 Bft) 0 min 0 min 7,2 km/h (2 Bft)
12.08.2012 21:54 24,9 C 21,6 C 0,0 UV-I 0,0 C 47 % 52 % 0 % 1013,2 hPa 0,0 l/m 0,8 km/h (0 Bft) 0 min 0 min 4,0 km/h (1 Bft)
12.08.2012 21:56 24,9 C 21,5 C 0,0 UV-I 0,0 C 47 % 53 % 0 % 1013,2 hPa 0,0 l/m 0,8 km/h (0 Bft) 0 min 0 min 0,0 km/h (0 Bft)
12.08.2012 21:58 24,9 C 21,4 C 0,0 UV-I 0,0 C 47 % 53 % 0 % 1013,2 hPa 0,0 l/m 0,8 km/h (0 Bft) 0 min 0 min 0,0 km/h (0 Bft)
12.08.2012 22:00 24,9 C 21,4 C 0,0 UV-I 0,0 C 47 % 53 % 0 % 1013,2 hPa 0,0 l/m 0,8 km/h (0 Bft) 0 min 0 min 0,0 km/h (0 Bft)
12.08.2012 22:02 24,9 C 21,5 C 0,0 UV-I 0,0 C 47 % 53 % 0 % 1013,2 hPa 0,0 l/m 0,4 km/h (0 Bft) 0 min 0 min 4,0 km/h (1 Bft)
12.08.2012 22:04 24,9 C 21,3 C 0,0 UV-I 0,0 C 47 % 53 % 0 % 1013,2 hPa 0,0 l/m 0,4 km/h (0 Bft) 0 min 0 min 4,0 km/h (1 Bft)
12.08.2012 22:06 24,8 C 21,3 C 0,0 UV-I 0,0 C 47 % 53 % 0 % 1013,2 hPa 0,0 l/m 0,4 km/h (0 Bft) 0 min 0 min 4,0 km/h (1 Bft)
12.08.2012 22:08 24,8 C 21,3 C 0,0 UV-I 0,0 C 47 % 53 % 0 % 1013,2 hPa 0,0 l/m 0,4 km/h (0 Bft) 0 min 0 min 4,0 km/h (1 Bft)
12.08.2012 22:10 24,8 C 21,3 C 0,0 UV-I 0,0 C 47 % 53 % 0 % 1013,3 hPa 0,0 l/m 0,8 km/h (0 Bft) 0 min 0 min 4,0 km/h (1 Bft)
12.08.2012 22:12 24,8 C 21,2 C 0,0 UV-I 0,0 C 47 % 53 % 0 % 1013,3 hPa 0,0 l/m 0,8 km/h (0 Bft) 0 min 0 min 4,8 km/h (1 Bft)
12.08.2012 22:14 24,8 C 21,1 C 0,0 UV-I 0,0 C 47 % 54 % 0 % 1013,3 hPa 0,0 l/m 0,8 km/h (0 Bft) 0 min 0 min 4,8 km/h (1 Bft)
12.08.2012 22:16 24,8 C 21,1 C 0,0 UV-I 0,0 C 47 % 54 % 0 % 1013,3 hPa 0,0 l/m 0,8 km/h (0 Bft) 0 min 0 min 4,8 km/h (1 Bft)
12.08.2012 22:18 24,8 C 21,1 C 0,0 UV-I 0,0 C 47 % 54 % 0 % 1013,3 hPa 0,0 l/m 0,8 km/h (0 Bft) 0 min 0 min 4,4 km/h (1 Bft)
12.08.2012 22:20 24,8 C 21,0 C 0,0 UV-I 0,0 C 47 % 54 % 0 % 1013,3 hPa 0,0 l/m 0,4 km/h (0 Bft) 0 min 0 min 4,4 km/h (1 Bft)
12.08.2012 22:22 24,8 C 21,1 C 0,0 UV-I 0,0 C 47 % 54 % 0 % 1013,3 hPa 0,0 l/m 0,8 km/h (0 Bft) 0 min 0 min 0,0 km/h (0 Bft)
12.08.2012 22:24 24,8 C 21,1 C 0,0 UV-I 0,0 C 47 % 54 % 0 % 1013,3 hPa 0,0 l/m 0,4 km/h (0 Bft) 0 min 0 min 0,0 km/h (0 Bft)
12.08.2012 22:26 24,8 C 21,0 C 0,0 UV-I 0,0 C 48 % 54 % 0 % 1013,3 hPa 0,0 l/m 0,4 km/h (0 Bft) 0 min 0 min 4,0 km/h (1 Bft)
12.08.2012 22:28 24,8 C 20,9 C 0,0 UV-I 0,0 C 48 % 54 % 0 % 1013,3 hPa 0,0 l/m 0,4 km/h (0 Bft) 0 min 0 min 4,0 km/h (1 Bft)
12.08.2012 22:30 24,8 C 20,9 C 0,0 UV-I 0,0 C 48 % 54 % 0 % 1013,6 hPa 0,0 l/m 0,0 km/h (0 Bft) 0 min 0 min 0,0 km/h (0 Bft)
12.08.2012 22:32 24,8 C 20,8 C 0,0 UV-I 0,0 C 48 % 55 % 0 % 1013,6 hPa 0,0 l/m 0,0 km/h (0 Bft) 0 min 0 min 0,0 km/h (0 Bft)
12.08.2012 22:34 24,8 C 20,9 C 0,0 UV-I 0,0 C 48 % 55 % 0 % 1013,6 hPa 0,0 l/m 0,0 km/h (0 Bft) 0 min 0 min 0,0 km/h (0 Bft)
12.08.2012 22:36 24,8 C 20,8 C 0,0 UV-I 0,0 C 48 % 55 % 0 % 1013,6 hPa 0,0 l/m 0,0 km/h (0 Bft) 0 min 0 min 0,0 km/h (0 Bft)
12.08.2012 22:38 24,7 C 20,7 C 0,0 UV-I 0,0 C 48 % 55 % 0 % 1013,6 hPa 0,0 l/m 0,0 km/h (0 Bft) 0 min 0 min 0,0 km/h (0 Bft)
12.08.2012 22:40 24,7 C 20,7 C 0,0 UV-I 0,0 C 48 % 55 % 0 % 1013,6 hPa 0,0 l/m 0,0 km/h (0 Bft) 0 min 0 min 0,0 km/h (0 Bft)
12.08.2012 22:42 24,7 C 20,7 C 0,0 UV-I 0,0 C 48 % 55 % 0 % 1013,6 hPa 0,0 l/m 0,0 km/h (0 Bft) 0 min 0 min 0,0 km/h (0 Bft)
12.08.2012 22:44 24,7 C 20,5 C 0,0 UV-I 0,0 C 48 % 56 % 0 % 1013,6 hPa 0,0 l/m 0,0 km/h (0 Bft) 0 min 0 min 0,0 km/h (0 Bft)
12.08.2012 22:46 24,7 C 20,4 C 0,0 UV-I 0,0 C 48 % 56 % 0 % 1013,6 hPa 0,0 l/m 0,0 km/h (0 Bft) 0 min 0 min 0,0 km/h (0 Bft)
12.08.2012 22:48 24,7 C 20,5 C 0,0 UV-I 0,0 C 48 % 56 % 0 % 1013,6 hPa 0,0 l/m 0,0 km/h (0 Bft) 0 min 0 min 0,0 km/h (0 Bft)
12.08.2012 22:50 24,7 C 20,5 C 0,0 UV-I 0,0 C 48 % 56 % 0 % 1013,1 hPa 0,0 l/m 0,0 km/h (0 Bft) 0 min 0 min 0,0 km/h (0 Bft)
12.08.2012 22:52 24,7 C 20,3 C 0,0 UV-I 0,0 C 48 % 56 % 0 % 1013,1 hPa 0,0 l/m 0,4 km/h (0 Bft) 0 min 0 min 0,0 km/h (0 Bft)
12.08.2012 22:54 24,7 C 20,3 C 0,0 UV-I 0,0 C 48 % 56 % 0 % 1013,1 hPa 0,0 l/m 0,4 km/h (0 Bft) 0 min 0 min 0,0 km/h (0 Bft)
12.08.2012 22:56 24,7 C 20,1 C 0,0 UV-I 0,0 C 48 % 56 % 0 % 1013,1 hPa 0,0 l/m 0,4 km/h (0 Bft) 0 min 0 min 0,0 km/h (0 Bft)
12.08.2012 22:58 24,7 C 20,1 C 0,0 UV-I 0,0 C 48 % 56 % 0 % 1013,1 hPa 0,0 l/m 0,4 km/h (0 Bft) 0 min 0 min 0,0 km/h (0 Bft)
12.08.2012 23:00 24,7 C 20,1 C 0,0 UV-I 0,0 C 48 % 57 % 0 % 1013,1 hPa 0,0 l/m 0,4 km/h (0 Bft) 0 min 0 min 0,0 km/h (0 Bft)
12.08.2012 23:02 24,7 C 20,0 C 0,0 UV-I 0,0 C 48 % 57 % 0 % 1013,1 hPa 0,0 l/m 0,4 km/h (0 Bft) 0 min 0 min 0,0 km/h (0 Bft)
12.08.2012 23:04 24,7 C 20,1 C 0,0 UV-I 0,0 C 48 % 57 % 0 % 1013,1 hPa 0,0 l/m 0,0 km/h (0 Bft) 0 min 0 min 0,0 km/h (0 Bft)
12.08.2012 23:06 24,6 C 20,0 C 0,0 UV-I 0,0 C 48 % 57 % 0 % 1013,1 hPa 0,0 l/m 0,0 km/h (0 Bft) 0 min 0 min 0,0 km/h (0 Bft)
12.08.2012 23:08 24,6 C 19,9 C 0,0 UV-I 0,0 C 48 % 57 % 0 % 1013,1 hPa 0,0 l/m 0,0 km/h (0 Bft) 0 min 0 min 0,0 km/h (0 Bft)
12.08.2012 23:10 24,6 C 19,9 C 0,0 UV-I 0,0 C 48 % 57 % 0 % 1013,3 hPa 0,0 l/m 0,0 km/h (0 Bft) 0 min 0 min 0,0 km/h (0 Bft)
12.08.2012 23:12 24,6 C 19,8 C 0,0 UV-I 0,0 C 48 % 58 % 0 % 1013,3 hPa 0,0 l/m 0,0 km/h (0 Bft) 0 min 0 min 0,0 km/h (0 Bft)
12.08.2012 23:14 24,6 C 19,7 C 0,0 UV-I 0,0 C 48 % 58 % 0 % 1013,3 hPa 0,0 l/m 0,0 km/h (0 Bft) 0 min 0 min 0,0 km/h (0 Bft)
12.08.2012 23:16 24,6 C 19,6 C 0,0 UV-I 0,0 C 48 % 58 % 0 % 1013,3 hPa 0,0 l/m 0,0 km/h (0 Bft) 0 min 0 min 0,0 km/h (0 Bft)
12.08.2012 23:18 24,6 C 19,6 C 0,0 UV-I 0,0 C 48 % 59 % 0 % 1013,3 hPa 0,0 l/m 0,0 km/h (0 Bft) 0 min 0 min 0,0 km/h (0 Bft)
12.08.2012 23:20 24,6 C 19,4 C 0,0 UV-I 0,0 C 48 % 59 % 0 % 1013,3 hPa 0,0 l/m 0,0 km/h (0 Bft) 0 min 0 min 0,0 km/h (0 Bft)
12.08.2012 23:22 24,6 C 19,5 C 0,0 UV-I 0,0 C 48 % 59 % 0 % 1013,3 hPa 0,0 l/m 0,0 km/h (0 Bft) 0 min 0 min 0,0 km/h (0 Bft)
12.08.2012 23:24 24,6 C 19,3 C 0,0 UV-I 0,0 C 48 % 59 % 0 % 1013,3 hPa 0,0 l/m 0,0 km/h (0 Bft) 0 min 0 min 0,0 km/h (0 Bft)
12.08.2012 23:26 24,6 C 19,2 C 0,0 UV-I 0,0 C 48 % 60 % 0 % 1013,3 hPa 0,0 l/m 0,0 km/h (0 Bft) 0 min 0 min 0,0 km/h (0 Bft)
12.08.2012 23:28 24,6 C 19,2 C 0,0 UV-I 0,0 C 48 % 60 % 0 % 1013,3 hPa 0,0 l/m 0,0 km/h (0 Bft) 0 min 0 min 0,0 km/h (0 Bft)
12.08.2012 23:30 24,6 C 19,2 C 0,0 UV-I 0,0 C 48 % 60 % 0 % 1013,4 hPa 0,0 l/m 0,0 km/h (0 Bft) 0 min 0 min 0,0 km/h (0 Bft)
12.08.2012 23:32 24,6 C 19,1 C 0,0 UV-I 0,0 C 48 % 60 % 0 % 1013,4 hPa 0,0 l/m 0,0 km/h (0 Bft) 0 min 0 min 0,0 km/h (0 Bft)
12.08.2012 23:34 24,6 C 18,9 C 0,0 UV-I 0,0 C 48 % 61 % 0 % 1013,4 hPa 0,0 l/m 0,0 km/h (0 Bft) 0 min 0 min 0,0 km/h (0 Bft)
12.08.2012 23:36 24,6 C 18,8 C 0,0 UV-I 0,0 C 48 % 61 % 0 % 1013,4 hPa 0,0 l/m 0,0 km/h (0 Bft) 0 min 0 min 0,0 km/h (0 Bft)
12.08.2012 23:38 24,5 C 18,8 C 0,0 UV-I 0,0 C 48 % 61 % 0 % 1013,4 hPa 0,0 l/m 0,0 km/h (0 Bft) 0 min 0 min 0,0 km/h (0 Bft)
12.08.2012 23:40 24,5 C 18,7 C 0,0 UV-I 0,0 C 48 % 61 % 0 % 1013,4 hPa 0,0 l/m 0,0 km/h (0 Bft) 0 min 0 min 0,0 km/h (0 Bft)
12.08.2012 23:42 24,5 C 18,7 C 0,0 UV-I 0,0 C 48 % 62 % 0 % 1013,4 hPa 0,0 l/m 0,0 km/h (0 Bft) 0 min 0 min 0,0 km/h (0 Bft)
12.08.2012 23:44 24,5 C 18,6 C 0,0 UV-I 0,0 C 48 % 62 % 0 % 1013,4 hPa 0,0 l/m 0,0 km/h (0 Bft) 0 min 0 min 0,0 km/h (0 Bft)
12.08.2012 23:46 24,5 C 18,5 C 0,0 UV-I 0,0 C 48 % 62 % 0 % 1013,4 hPa 0,0 l/m 0,0 km/h (0 Bft) 0 min 0 min 0,0 km/h (0 Bft)
12.08.2012 23:48 24,5 C 18,5 C 0,0 UV-I 0,0 C 48 % 62 % 0 % 1013,4 hPa 0,0 l/m 0,0 km/h (0 Bft) 0 min 0 min 0,0 km/h (0 Bft)
12.08.2012 23:50 24,5 C 18,5 C 0,0 UV-I 0,0 C 48 % 62 % 0 % 1013,3 hPa 0,0 l/m 0,0 km/h (0 Bft) 0 min 0 min 0,0 km/h (0 Bft)
12.08.2012 23:52 24,5 C 18,3 C 0,0 UV-I 0,0 C 48 % 63 % 0 % 1013,3 hPa 0,0 l/m 0,0 km/h (0 Bft) 0 min 0 min 0,0 km/h (0 Bft)
12.08.2012 23:54 24,5 C 18,2 C 0,0 UV-I 0,0 C 48 % 63 % 0 % 1013,3 hPa 0,0 l/m 0,0 km/h (0 Bft) 0 min 0 min 0,0 km/h (0 Bft)
12.08.2012 23:56 24,5 C 18,2 C 0,0 UV-I 0,0 C 48 % 63 % 0 % 1013,3 hPa 0,0 l/m 0,0 km/h (0 Bft) 0 min 0 min 0,0 km/h (0 Bft)
12.08.2012 23:58 24,5 C 18,3 C 0,0 UV-I 0,0 C 49 % 63 % 0 % 1013,3 hPa 0,0 l/m 0,0 km/h (0 Bft) 0 min 0 min 0,0 km/h (0 Bft)
_ Min-Zeit 06:20 06:22 00:00 00:00 15:46 15:24 00:00 18:30 - 00:00 - - 00:00
Minimum _ 22,2 C 10,0 C 0,0 UV-I 0,0 C 42 % 39 % 0 % 1012,6 hPa - 0,0 km/h (0 Bft) - - 0,0 km/h (0 Bft)
_ Max-Zeit 16:06 16:22 10:54 08:54 08:32 07:46 08:38 00:12 00:00 13:14 08:36 05:28 12:16
Maximum _ 27,6 C 26,8 C 5,3 UV-I 8,9 C 54 % 94 % 100 % 1018,3 hPa 0,0 l/m 12,4 km/h
O-SO (3 Bft)
2 min 2 min 42,2 km/h
O-SO (6 Bft)
Durchschnitt _ 24,2 C 19,2 C 1,3 UV-I 2,1 C 49 % 64 % 41 % 1015,2 hPa #0,0 l/m 3,9 km/h (1 Bft) #9:32 h #2 min. 6,7 km/h (2 Bft)
© 2012 W. Hausmann